GEFSSE_500_meanwind_132.txt.gz
Wind_Speed
31 31 30 29 28 27 25 23 21 20 18 17 15 14 13 12 11 11 11 10 10 10 9 8 8 7 6 6 6 5 5 5 5 5 4 4 3 2 2 2 3 5 6
32 31 31 31 31 30 28 26 24 22 21 19 18 17 15 14 13 13 12 12 12 11 11 10 9 8 8 7 7 7 6 6 6 6 6 5 4 4 4 4 4 5 6
34 32 31 31 32 32 31 29 27 25 24 22 21 19 18 16 15 14 14 13 13 13 12 11 10 9 9 9 8 8 8 8 7 7 7 6 6 5 5 5 5 6 7
35 33 32 32 33 33 33 31 30 28 27 25 24 22 20 19 17 16 15 14 14 14 13 13 12 11 10 10 10 10 9 9 9 8 8 7 7 7 6 7 7 7 8
37 35 35 34 34 34 34 34 32 31 29 28 26 25 23 21 20 18 17 17 16 15 15 14 13 12 12 11 11 11 11 10 10 9 9 8 8 8 8 8 9 9 9
39 38 36 35 35 35 35 35 35 33 32 30 28 27 25 24 22 20 19 18 17 17 17 16 15 14 13 12 12 12 12 12 11 10 10 10 10 10 10 10 10 10 10
42 40 38 37 36 36 36 36 36 35 34 32 31 29 27 26 24 23 21 20 19 18 18 17 17 16 15 14 13 13 13 12 12 12 12 12 11 11 11 11 11 11 12
45 43 41 39 38 37 38 37 37 37 36 34 33 31 29 28 26 25 23 22 21 20 19 19 18 17 16 15 15 15 14 14 13 13 13 13 13 13 13 13 13 13 13
49 46 44 42 41 40 40 39 39 38 38 36 35 34 32 30 28 27 25 23 22 21 21 20 19 19 18 17 16 16 15 15 15 14 14 14 14 14 14 14 14 14 14
52 49 46 45 43 42 42 41 41 40 39 38 37 36 34 32 30 29 27 25 24 23 22 21 21 20 19 18 17 17 17 17 16 16 16 16 16 16 16 16 16 16 16
54 52 49 47 46 44 44 43 42 41 40 39 39 37 35 34 32 30 29 27 26 25 24 23 22 21 20 19 19 19 19 18 18 17 17 17 17 17 17 17 17 17 18
56 55 52 50 48 47 46 45 44 43 42 41 40 38 37 35 34 32 30 29 27 26 25 24 23 23 22 21 21 20 20 20 19 19 19 19 19 19 19 19 19 19 19
57 56 54 53 51 49 48 47 46 45 44 42 41 40 38 37 35 34 32 30 29 27 26 25 24 24 23 23 22 22 22 22 21 21 21 21 21 21 21 21 21 21 21
59 58 57 55 54 52 50 49 49 48 46 44 42 41 40 38 37 35 33 32 30 28 28 27 26 25 25 24 24 24 24 24 24 23 23 23 23 23 23 23 23 23 23
62 61 59 57 55 55 53 51 49 48 48 46 44 42 41 39 38 37 35 33 32 31 30 29 28 27 26 26 26 26 26 26 25 25 25 25 25 25 25 25 25 25 25
62 62 61 60 58 56 55 55 52 50 49 48 46 44 42 41 39 38 37 35 34 33 32 31 30 29 29 28 28 27 27 27 27 27 27 26 27 27 27 27 27 27 27
62 64 63 62 61 58 56 56 54 52 51 49 48 45 43 42 41 40 39 38 36 35 34 33 33 32 31 30 30 29 29 29 29 29 28 28 28 28 28 29 29 29 29
61 62 63 62 61 60 58 56 54 53 51 50 48 46 45 44 42 42 41 39 39 38 37 35 35 34 33 32 31 31 31 31 31 30 30 30 30 30 31 31 31 32 32
58 58 59 59 59 60 59 57 56 54 52 51 50 49 47 46 45 44 42 41 40 39 38 37 37 36 35 34 34 34 33 33 32 32 32 32 32 33 33 33 34 34 34
54 55 56 56 58 59 59 57 57 55 53 52 51 50 48 47 46 45 44 42 41 40 39 39 38 37 37 36 36 35 35 34 34 34 34 35 35 35 35 35 35 35 35
50 53 54 54 55 56 57 58 57 56 54 53 52 51 49 47 46 45 43 42 42 41 40 40 39 38 38 38 39 39 38 37 37 37 37 37 37 37 37 37 37 37 37
45 47 50 51 52 54 53 55 55 55 54 53 51 49 48 49 47 45 45 44 43 43 43 42 41 41 41 41 42 42 41 40 39 39 39 38 39 39 38 38 38 38 39
39 41 43 47 49 50 50 52 54 54 54 52 50 49 48 48 48 46 45 46 46 45 45 44 43 43 42 43 44 44 42 41 41 40 40 40 41 41 41 40 40 40 40
33 36 37 39 43 45 48 49 50 51 50 50 49 49 48 49 48 47 46 46 47 47 46 46 45 45 45 45 46 45 44 43 43 43 42 43 43 43 43 43 42 41 41
28 32 33 35 40 41 44 46 47 47 47 48 49 49 49 48 48 47 46 46 47 46 47 46 45 46 47 47 47 46 45 46 46 46 46 46 46 46 46 45 44 43 42
22 27 29 30 35 37 40 43 45 44 44 45 45 46 47 47 47 48 47 47 47 47 46 46 45 45 46 46 45 46 46 47 47 47 48 48 48 48 47 46 45 45 45

GEFSSE_500_meanwind_138.txt.gz
Wind_Speed
28 28 28 28 28 27 26 25 23 20 18 17 15 13 11 10 9 9 8 8 7 7 7 6 6 6 6 6 6 6 6 6 6 6 6 6 6 6 6 6 6 6 7
30 29 29 29 28 28 28 27 26 24 22 20 18 15 14 12 11 10 10 9 9 8 8 8 8 7 7 7 7 7 7 7 7 7 7 7 7 7 7 7 7 7 8
32 32 31 30 29 29 29 29 28 27 25 23 21 18 17 15 13 12 11 11 11 10 10 9 9 9 9 8 8 8 8 8 9 9 9 9 8 8 8 8 8 8 9
33 33 33 32 30 30 30 30 30 29 28 26 24 22 20 18 16 15 14 13 12 12 11 11 11 11 10 9 9 9 9 9 9 10 10 10 10 9 9 9 10 10 11
35 35 35 34 33 32 31 31 31 31 30 29 27 25 23 21 19 17 16 15 14 14 13 12 12 12 11 11 11 11 11 11 11 11 11 11 11 11 10 11 11 11 12
37 37 36 35 34 33 33 32 32 32 31 31 30 28 26 24 21 20 19 18 17 16 15 14 13 13 13 13 12 12 12 12 12 12 12 12 12 12 12 12 12 12 13
40 39 38 37 36 36 34 34 33 33 32 32 31 31 29 27 24 22 21 20 19 18 17 16 15 15 15 14 14 14 14 13 13 14 14 13 13 13 13 13 14 14 14
44 43 41 39 39 38 37 36 35 34 33 33 33 32 31 29 27 25 23 22 21 20 19 18 17 16 16 16 15 15 15 15 15 15 15 15 15 15 15 15 15 15 15
47 46 44 42 41 40 39 38 37 36 34 34 33 33 32 32 30 28 26 24 23 22 21 20 19 18 18 17 17 16 17 17 16 16 16 16 16 16 16 17 17 17 17
49 48 47 45 44 43 42 40 39 39 37 36 34 34 33 33 32 31 28 27 25 24 23 21 21 20 19 19 18 18 18 18 18 18 17 18 18 18 18 18 18 19 19
53 51 50 48 47 45 45 44 42 41 40 38 37 35 34 34 33 32 31 29 27 26 25 23 22 21 21 20 20 19 19 19 19 19 19 19 20 20 20 20 20 20 21
55 54 52 51 50 48 47 46 45 43 42 40 39 38 36 35 34 33 32 31 30 28 27 25 23 23 22 22 21 21 21 20 20 21 21 21 21 22 22 22 22 22 23
57 56 55 54 52 51 50 49 48 46 44 43 41 39 38 37 35 35 34 33 32 31 29 27 25 25 24 24 23 23 23 22 22 22 23 23 23 24 24 24 24 24 24
59 58 57 56 55 54 53 52 50 48 46 45 43 41 40 39 37 36 36 34 33 31 30 29 28 27 26 25 25 25 25 25 25 25 25 25 25 25 26 26 25 25 26
61 60 59 58 57 56 55 54 52 51 49 48 45 44 41 40 39 38 37 36 34 33 32 31 31 29 28 27 27 26 26 27 27 27 27 27 27 27 27 27 27 27 27
62 61 61 60 59 58 57 55 54 53 51 49 48 45 43 42 41 39 39 38 36 35 33 33 32 31 31 29 29 29 29 29 29 29 29 28 28 29 29 29 29 29 29
62 62 62 61 61 60 58 57 56 55 54 52 50 48 46 44 43 42 41 39 37 36 36 35 35 34 32 31 31 31 31 31 31 31 31 31 31 31 31 31 31 31 31
61 62 63 63 62 61 60 59 57 57 56 54 51 50 48 46 45 43 42 40 39 38 38 37 36 35 34 33 33 33 32 32 32 32 33 33 33 33 33 33 33 33 33
58 60 61 63 64 63 63 62 60 59 57 56 54 51 49 47 46 44 43 42 41 41 40 38 37 37 36 36 35 35 34 34 34 34 34 35 35 35 35 35 35 35 35
54 57 59 61 63 64 64 64 63 61 59 57 55 53 50 49 47 45 43 43 43 42 40 39 38 38 39 38 38 37 37 37 37 37 37 37 38 38 37 37 37 38 38
46 51 53 55 56 59 62 63 63 62 60 58 56 54 53 51 49 47 45 44 43 42 41 40 41 40 41 41 40 39 39 39 39 39 40 39 39 39 39 39 38 39 39
38 43 47 50 51 53 57 59 61 62 61 59 57 56 54 53 51 48 46 44 43 43 42 41 42 42 41 42 43 43 42 41 41 40 41 41 41 42 41 42 42 42 41
35 38 42 46 48 50 52 54 57 60 59 58 57 56 54 53 52 50 49 47 46 45 44 43 44 44 43 43 43 44 44 44 44 43 43 43 44 44 44 44 45 45 44
31 36 38 40 43 46 49 50 53 55 56 56 55 55 54 54 53 51 50 48 46 45 45 46 45 44 44 45 46 46 46 46 46 45 44 45 45 46 46 47 47 46 46
26 30 34 35 37 40 44 46 48 50 51 51 53 54 54 53 53 52 51 49 49 48 47 47 46 46 47 48 49 48 48 48 48 48 47 47 47 48 48 48 47 47 47
21 26 30 32 31 34 39 41 42 43 45 48 51 53 53 54 54 53 52 51 50 50 48 47 48 49 51 51 50 50 50 49 49 49 49 48 48 48 48 48 48 48 48

GEFSSE_500_meanwind_144.txt.gz
Wind_Speed
23 22 22 22 22 22 22 22 22 21 19 18 17 16 14 13 11 10 9 8 8 7 6 6 5 5 4 4 4 4 4 4 4 5 5 5 5 6 6 6 6 7 7
25 24 24 23 23 23 23 23 24 23 22 21 20 18 17 15 14 12 11 10 9 8 8 7 6 6 6 6 5 5 5 5 5 6 6 6 7 7 7 8 8 8 8
28 27 26 25 25 25 24 24 25 25 25 24 23 22 20 18 16 14 13 12 11 10 9 9 8 7 7 7 7 6 6 6 6 7 7 8 8 8 9 9 9 9 10
30 30 29 28 27 26 26 25 26 26 26 26 25 24 23 21 19 17 15 14 13 12 11 10 10 9 8 8 8 8 8 8 8 8 8 9 9 9 10 10 10 11 11
33 32 31 31 30 29 28 27 27 27 27 27 27 26 25 24 22 20 18 17 16 14 13 12 11 11 10 10 10 10 10 9 9 9 9 10 10 11 11 11 12 12 12
36 35 34 34 33 32 31 30 29 29 29 28 28 28 27 27 25 23 21 19 18 17 16 14 13 12 12 11 11 11 11 11 11 11 11 11 11 12 12 13 13 13 13
38 38 37 36 36 35 33 32 32 31 30 30 29 29 29 28 28 26 24 22 20 19 18 16 15 14 14 13 13 13 13 13 13 12 12 12 12 13 13 13 14 14 14
41 40 39 39 38 37 36 35 34 33 33 32 31 30 30 30 29 29 27 25 23 22 20 19 18 16 15 15 14 14 14 14 14 14 14 14 14 14 14 14 15 15 16
44 43 42 42 41 40 39 38 37 36 35 34 33 32 31 31 30 30 29 27 26 24 23 21 20 19 18 17 16 16 15 16 16 16 15 15 15 15 15 16 16 17 17
47 46 45 45 44 43 42 41 40 38 37 36 35 34 33 32 32 32 31 30 28 26 25 24 23 21 20 19 18 18 17 17 17 18 18 17 17 17 17 17 18 18 19
49 49 48 48 47 46 45 44 43 41 40 39 37 36 36 34 33 33 32 31 30 28 27 26 25 24 22 21 21 20 20 19 19 19 19 19 19 19 19 19 20 20 21
52 52 52 52 51 50 48 47 46 43 42 41 40 38 37 37 36 35 33 32 31 31 29 28 28 26 25 24 23 22 21 21 21 21 20 21 21 21 21 21 21 22 22
55 55 56 55 54 53 52 50 49 47 45 43 42 41 40 39 38 37 35 34 33 32 31 30 29 28 27 26 25 25 24 23 23 22 22 22 23 23 23 23 23 24 24
55 57 58 58 58 56 55 53 52 50 48 46 45 43 42 41 40 40 38 36 35 34 33 32 31 30 30 28 27 27 26 26 25 24 24 24 25 25 25 25 26 26 26
55 57 57 60 60 59 58 56 55 53 51 49 48 46 45 44 43 42 41 39 38 36 34 33 33 32 32 31 30 29 28 28 27 27 26 26 26 27 27 27 28 28 28
55 57 58 59 60 60 60 59 57 55 54 53 51 49 48 47 45 44 43 42 40 39 37 35 34 34 33 33 32 31 30 30 29 29 29 28 29 29 29 29 29 29 30
55 56 57 58 60 61 61 61 60 58 56 55 54 52 50 49 48 46 45 44 43 41 40 38 37 36 35 34 34 33 32 31 31 31 31 31 30 30 30 30 30 30 31
53 55 56 57 59 60 62 62 62 61 59 58 56 54 52 51 50 49 47 46 45 44 42 40 39 37 36 35 35 34 34 34 34 33 33 32 32 32 32 32 32 33 33
50 52 54 56 57 60 62 63 63 62 61 60 58 57 54 54 52 51 49 48 48 46 44 41 40 39 38 37 36 36 36 36 35 35 34 34 33 34 34 35 35 36 36
47 49 51 54 55 57 59 62 62 62 61 61 59 59 57 56 55 54 52 50 49 47 45 44 43 42 41 40 39 38 38 38 38 37 36 36 36 36 37 37 38 38 39
42 44 47 50 53 55 57 59 60 61 61 61 60 59 58 56 56 55 54 52 50 49 46 45 45 44 42 42 42 41 40 40 40 39 38 38 38 38 39 40 41 42 42
37 39 42 46 49 52 55 56 57 59 60 59 58 58 57 56 56 55 54 54 52 51 49 47 47 45 44 43 43 43 42 42 42 41 41 40 41 41 41 42 43 44 44
34 36 37 39 43 46 50 53 55 57 58 59 58 58 57 56 56 55 53 53 54 53 51 49 49 47 46 45 45 44 44 44 42 42 42 43 43 43 44 44 44 45 45
30 31 33 35 38 41 47 50 51 53 54 55 55 56 55 55 55 55 55 54 53 53 53 51 50 48 47 46 46 45 46 46 45 44 44 44 45 45 45 45 45 46 46
25 27 30 32 35 37 40 43 45 48 51 51 52 53 54 54 55 55 55 53 52 53 53 51 51 51 49 47 48 47 48 48 47 48 46 46 47 47 47 47 47 48 49
21 23 25 27 29 32 35 39 41 43 46 48 48 48 50 53 53 53 54 53 52 53 54 53 52 52 51 49 49 48 49 49 49 49 49 48 48 47 48 49 49 50 51

GEFSSE_500_meanwind_150.txt.gz
Wind_Speed
18 18 19 19 19 19 19 19 18 18 18 17 16 15 14 13 12 11 11 10 10 10 9 9 8 8 7 7 6 5 5 5 4 4 4 4 4 5 5 6 6 6 7
22 21 21 20 21 21 21 20 20 20 19 19 19 18 16 16 15 13 13 12 12 11 11 10 9 9 9 8 8 7 6 6 6 5 6 6 6 6 7 7 7 8 8
25 24 23 23 23 22 22 22 22 22 21 21 21 20 19 18 17 16 15 14 13 13 12 12 11 11 10 10 9 8 8 7 7 7 7 7 7 7 8 8 8 9 9
28 27 27 26 25 25 24 24 24 23 23 23 22 22 22 21 20 19 18 16 15 14 14 14 13 12 12 11 11 11 10 9 9 9 8 8 8 9 9 9 9 10 10
31 30 30 29 28 28 27 26 25 25 25 24 24 24 23 23 23 22 21 20 18 17 16 15 15 14 13 13 13 12 12 11 11 10 10 10 10 10 10 10 11 11 11
34 33 33 32 31 31 30 29 28 27 27 26 26 25 25 25 24 24 23 22 21 20 18 17 16 16 15 15 14 14 14 13 13 12 12 12 12 12 12 12 12 12 12
36 36 35 35 34 33 33 32 31 30 29 28 28 27 27 27 27 26 25 25 24 23 21 20 18 18 17 17 16 16 15 15 14 14 13 13 13 13 13 13 13 13 14
39 38 37 37 37 36 35 35 34 33 32 31 30 29 29 29 29 28 28 27 26 25 24 23 21 20 19 19 18 17 17 16 16 16 15 15 15 15 15 14 14 15 15
42 41 41 40 39 39 38 37 37 36 35 34 33 32 31 31 30 30 29 29 28 27 26 26 24 22 21 21 20 19 19 18 17 17 17 17 16 16 16 16 15 16 16
44 44 43 43 42 41 41 40 40 39 38 37 36 34 33 32 31 32 31 30 29 29 28 27 27 25 24 23 23 22 21 20 19 19 18 18 18 18 18 18 18 18 18
46 46 45 45 44 44 43 43 43 42 41 40 39 37 36 35 34 33 33 32 32 31 30 29 29 28 26 25 24 24 23 22 21 21 20 20 20 20 19 19 20 20 20
47 48 48 47 47 46 46 45 45 45 44 43 42 41 40 39 37 35 34 34 34 33 31 31 31 30 29 28 26 26 25 25 24 23 22 22 22 22 22 21 22 22 22
48 49 49 50 50 49 49 49 48 48 47 46 45 44 43 41 40 39 37 36 35 34 33 32 32 31 31 31 30 28 28 27 26 25 24 24 24 24 24 23 23 23 23
49 50 50 51 52 52 51 51 50 50 49 48 48 47 45 44 43 41 40 38 37 36 35 34 34 33 33 33 32 31 29 29 28 27 27 26 26 25 25 25 25 24 24
50 50 51 51 53 53 53 53 52 51 51 51 50 49 48 47 46 44 42 40 39 38 36 35 35 35 34 34 33 33 32 31 31 30 29 29 28 27 27 27 26 26 27
49 51 51 52 53 54 54 55 55 54 54 53 53 52 50 50 49 47 45 43 42 40 39 37 36 36 36 35 34 34 34 34 33 31 31 30 30 29 28 28 28 28 28
47 49 50 52 53 54 55 56 56 56 55 55 54 54 53 52 51 50 48 46 45 44 42 41 39 38 38 38 37 36 35 35 35 34 33 32 32 31 31 30 30 30 30
47 48 49 51 53 54 55 55 56 57 57 57 57 56 55 55 54 53 51 49 47 46 45 44 42 40 40 40 39 38 37 36 36 35 35 34 33 33 33 33 33 32 32
44 45 46 48 50 51 54 55 56 57 58 58 58 58 58 57 57 56 54 52 51 49 47 46 45 43 42 41 41 40 39 38 37 37 36 35 35 35 35 35 35 34 35
41 41 42 44 46 48 50 52 54 56 57 57 58 58 59 59 58 57 56 54 53 52 50 49 48 47 45 44 43 42 42 40 39 39 38 37 37 37 37 37 37 37 37
39 39 40 42 43 44 46 48 50 52 54 56 56 58 59 59 58 58 57 56 55 53 51 50 50 49 47 47 46 45 44 43 42 40 40 39 38 38 38 39 39 39 39
37 38 39 40 42 44 45 45 46 48 50 52 54 56 57 58 58 57 57 56 56 54 52 52 51 50 49 48 48 48 47 45 43 41 41 41 40 40 40 40 41 41 41
36 36 37 38 39 41 42 44 46 46 47 49 51 52 55 56 56 56 56 56 56 55 53 53 52 50 49 49 49 49 49 47 45 44 43 43 42 42 43 42 42 42 42
34 34 35 36 37 39 39 40 43 44 45 46 48 48 51 53 55 56 56 56 56 56 54 53 52 52 51 51 51 50 50 50 49 47 45 45 45 45 45 46 45 45 45
30 31 32 34 35 37 38 39 40 41 42 44 45 47 48 51 53 55 55 55 54 54 53 52 50 51 52 52 53 53 52 52 52 51 49 48 48 47 46 47 47 46 46
27 27 29 30 30 31 33 35 36 38 39 41 43 44 46 47 49 51 52 54 52 52 53 53 50 50 51 52 53 53 53 54 54 54 53 50 50 49 48 48 47 47 48

GEFSSE_500_meanwind_156.txt.gz
Wind_Speed
16 15 15 15 15 15 15 15 15 14 14 13 13 13 12 12 11 11 10 10 9 8 8 9 9 9 9 9 9 8 8 8 7 7 7 7 7 7 7 7 7 7 7
18 18 17 17 17 17 17 17 17 16 16 16 15 15 15 14 14 13 12 12 11 10 10 10 10 10 10 10 10 10 10 9 9 9 9 9 9 9 9 9 9 8 8
21 20 20 19 19 19 19 19 19 18 18 18 18 17 17 16 16 16 15 14 13 12 12 12 12 12 12 12 11 11 12 11 11 10 10 10 10 10 10 10 10 10 10
23 23 23 22 22 22 21 21 21 21 20 20 20 20 19 19 18 17 17 16 16 15 14 14 13 13 13 13 13 13 13 13 13 12 12 12 11 11 11 11 11 11 11
26 26 26 25 25 24 24 23 23 23 23 23 22 22 22 21 20 20 19 19 18 17 17 16 16 15 15 14 14 14 14 15 14 14 14 13 13 12 12 12 12 12 12
29 28 28 28 28 27 27 26 25 25 25 25 25 24 24 23 23 22 22 21 21 20 19 18 18 18 17 17 16 16 16 16 16 16 16 15 15 14 14 14 13 13 13
31 31 31 31 30 30 29 29 28 28 27 27 26 26 26 26 25 24 24 24 23 22 22 21 20 20 19 18 18 18 17 17 17 17 17 17 16 16 15 15 15 15 14
34 34 33 33 33 33 32 31 31 30 30 29 29 28 28 28 27 27 26 26 25 25 25 24 23 23 22 21 20 19 19 19 18 18 18 18 18 18 17 17 17 16 16
36 36 36 36 36 35 35 34 34 33 33 32 31 31 30 30 29 29 29 28 27 26 27 27 26 25 24 24 23 22 21 21 20 20 20 20 19 19 19 19 19 19 18
38 39 39 38 38 38 38 38 37 36 36 35 35 34 33 33 32 32 31 30 29 29 28 29 28 27 26 25 25 25 24 23 23 22 22 22 21 21 21 21 21 20 20
41 41 41 41 41 41 41 40 40 39 39 39 38 37 37 36 35 34 33 32 32 31 31 30 30 30 29 27 27 27 26 25 25 24 24 24 23 23 22 22 23 22 22
42 43 43 43 43 43 43 43 43 43 42 42 41 41 40 39 38 37 36 35 34 34 34 32 31 31 30 30 29 29 29 28 27 27 26 26 26 25 24 24 24 24 24
43 43 44 44 44 44 45 45 45 45 45 45 45 44 43 42 41 40 39 38 37 37 36 35 34 33 32 32 32 31 31 30 29 29 28 28 28 27 27 26 26 26 26
42 43 44 44 45 46 46 46 46 46 46 46 46 46 46 45 44 43 42 41 40 39 38 38 36 35 34 33 33 33 32 32 31 31 31 30 30 29 29 28 27 27 27
42 43 45 46 46 47 47 47 47 48 48 48 47 47 48 47 47 46 45 44 43 42 41 40 38 37 37 36 34 35 35 34 33 33 33 33 32 32 31 30 29 29 29
42 43 45 45 46 47 48 49 49 49 49 50 50 51 50 49 48 48 47 46 45 45 44 43 41 40 39 38 37 36 36 36 35 35 34 34 34 33 33 32 31 31 31
42 43 44 45 46 47 47 48 50 50 50 51 51 51 51 51 51 50 49 49 48 47 46 45 44 43 42 41 40 39 38 38 37 36 36 36 36 35 34 34 34 33 33
42 42 42 44 45 46 46 47 49 50 51 51 52 52 53 53 53 52 52 52 51 50 48 47 46 45 44 44 43 42 41 40 39 38 38 37 37 37 36 36 36 36 35
41 41 41 42 42 43 44 45 46 48 49 50 51 52 53 54 55 54 54 53 53 52 51 50 49 48 47 46 46 45 44 43 42 40 39 39 39 38 37 37 37 38 37
39 40 40 41 42 43 43 44 45 45 46 47 49 50 52 53 54 55 55 55 55 54 53 52 51 50 49 48 48 47 46 45 45 42 41 40 41 40 40 39 39 39 39
38 39 40 41 42 43 44 44 44 45 46 47 48 49 50 52 53 53 53 54 55 55 55 53 53 53 51 50 49 48 48 47 47 44 43 42 42 42 42 42 41 41 40
36 36 37 39 41 42 43 43 44 45 46 46 47 48 49 51 52 53 53 54 54 55 55 54 54 53 52 51 50 49 49 49 49 47 45 44 43 43 43 43 43 43 42
35 36 36 37 39 40 41 42 42 43 44 45 46 47 49 50 51 53 54 54 53 53 53 54 53 52 52 52 52 51 51 51 48 47 45 45 45 45 44 44 44 44 45
33 33 34 35 35 37 38 39 41 41 42 43 44 45 46 48 49 51 52 53 54 53 53 52 52 53 54 54 54 53 53 51 50 48 47 47 46 46 46 46 47 46 46
29 30 31 32 33 33 35 36 38 39 40 41 42 43 44 45 47 48 49 50 52 52 52 52 52 52 53 54 53 52 52 53 52 51 50 50 50 48 48 48 48 49 49
29 30 30 31 31 32 33 34 35 37 39 40 41 42 43 43 43 45 47 48 49 50 50 51 52 52 51 51 52 53 53 52 52 52 52 51 51 49 49 49 50 50 51

GEFSSE_500_meanwind_162.txt.gz
Wind_Speed
17 17 16 16 15 15 14 14 13 13 12 11 10 10 9 8 8 7 7 6 6 6 6 6 6 6 6 7 7 8 8 8 8 7 7 8 8 9 9 9 9 9 9
19 18 18 17 16 16 16 16 16 15 14 13 12 12 11 11 10 10 9 8 8 8 7 7 7 8 8 8 8 9 9 10 9 9 9 9 10 10 10 10 10 10 10
20 20 19 19 18 18 17 17 17 17 16 16 15 15 14 13 13 12 12 11 11 10 9 9 9 9 9 9 9 10 10 11 11 11 11 11 11 11 11 11 11 11 11
22 21 21 20 20 19 19 18 19 18 18 18 18 17 17 16 16 15 14 14 13 13 12 12 11 11 11 11 11 11 11 11 12 12 12 12 12 12 12 12 12 12 12
24 23 23 23 22 22 21 21 20 20 20 20 20 19 19 19 18 18 17 16 16 15 15 14 14 13 13 13 13 13 13 13 13 13 13 13 13 13 13 13 13 13 13
26 26 26 25 25 24 24 23 23 22 22 22 22 22 21 21 20 20 20 19 18 18 17 17 17 16 16 15 15 16 15 15 15 14 14 15 15 15 15 15 14 14 14
28 28 28 28 28 27 27 26 26 25 25 24 24 24 23 23 23 22 22 22 21 21 20 20 20 19 18 18 18 17 17 17 17 17 16 16 17 17 17 16 16 16 16
30 31 31 30 30 29 30 29 29 29 28 27 26 26 26 25 25 24 24 24 24 23 23 23 22 22 22 21 21 20 20 20 19 19 19 18 18 18 18 18 18 18 18
33 33 33 33 33 32 32 32 32 32 31 30 30 29 28 28 27 27 27 27 26 26 26 25 25 24 24 23 23 23 22 22 22 22 21 21 20 20 20 20 20 20 20
35 35 35 35 35 35 35 35 35 34 34 33 33 33 32 31 30 30 29 29 29 29 29 28 28 27 26 26 25 25 25 25 25 24 24 23 23 22 22 21 21 21 22
36 36 37 37 38 38 37 37 37 37 37 36 36 36 35 34 34 33 32 32 32 32 31 31 30 30 29 28 27 27 27 27 27 26 26 25 25 24 24 23 23 23 23
38 38 38 38 39 39 39 39 39 39 39 38 38 38 37 37 37 36 36 35 35 34 34 33 33 33 32 31 30 30 29 29 29 29 28 28 27 26 25 25 25 25 25
39 39 39 39 39 39 39 40 40 40 40 40 40 40 40 39 39 39 39 39 38 37 37 36 36 35 35 34 33 32 32 32 31 31 30 29 29 29 28 27 27 27 27
39 39 40 40 40 40 40 40 41 41 41 42 42 42 42 42 42 41 42 41 41 41 40 40 39 38 37 37 36 36 35 34 33 33 32 32 31 31 30 30 29 29 29
40 40 41 41 41 41 42 42 42 42 43 43 44 44 44 44 44 43 44 44 44 44 43 43 42 41 40 40 39 39 38 37 36 35 34 34 34 33 33 32 31 31 31
40 41 41 42 42 42 43 44 44 45 45 45 46 46 46 46 46 45 45 46 46 46 46 45 45 45 44 43 42 41 41 40 39 38 37 36 36 36 35 35 34 33 33
40 41 42 42 43 43 44 44 45 46 47 47 47 47 47 47 47 47 47 47 47 47 48 48 47 46 46 45 45 44 43 43 42 41 41 40 38 38 37 36 36 36 36
40 40 41 42 42 42 42 43 44 44 45 46 47 47 48 48 48 48 48 48 47 48 48 49 49 49 48 47 47 46 46 45 45 44 43 43 41 40 39 38 38 38 38
39 39 40 41 41 42 42 43 43 44 44 45 45 46 47 48 48 49 49 49 48 49 49 49 50 50 50 49 49 48 47 47 47 47 46 45 44 43 41 41 41 40 40
39 40 40 41 41 42 43 43 43 43 43 44 45 45 45 46 47 48 49 49 50 50 50 50 50 51 51 51 51 50 49 49 49 48 48 47 46 45 43 43 43 43 42
38 39 39 40 41 41 42 42 42 42 43 44 44 45 45 45 46 47 48 49 50 51 51 51 51 51 52 52 53 52 51 51 50 50 49 49 48 47 46 45 44 44 44
38 38 38 39 40 40 40 41 41 42 43 43 44 45 46 46 47 47 48 49 50 51 52 52 53 53 52 52 53 52 53 52 51 51 50 49 49 49 48 47 47 47 46
37 37 37 38 38 39 39 40 41 42 43 44 45 46 46 47 47 48 48 49 50 50 51 52 53 54 53 53 53 53 53 52 52 52 51 50 50 50 50 49 49 48 48
34 35 35 36 36 37 38 39 40 41 42 44 45 46 47 47 47 47 47 48 49 49 50 50 51 52 53 52 53 54 55 54 53 52 51 51 51 51 51 51 50 49 48
32 32 33 33 33 34 36 37 38 39 40 41 42 43 43 44 44 45 45 46 47 48 48 49 50 50 52 52 52 53 55 55 54 54 53 51 51 51 50 50 51 49 49
31 32 32 32 32 33 34 35 37 38 39 39 39 41 42 43 43 43 43 45 45 46 47 48 49 49 51 52 52 52 53 54 53 54 54 53 52 51 51 50 50 51 51

GEFSSE_500_meanwind_168.txt.gz
Wind_Speed
17 16 16 15 15 14 14 13 12 12 12 12 11 10 10 9 9 8 7 7 7 6 6 6 6 6 5 5 5 6 6 6 6 6 7 7 7 7 7 7 7 7 7
19 18 18 17 16 16 16 15 14 14 13 13 13 12 12 11 10 10 9 9 9 8 8 8 7 7 7 7 7 7 7 8 8 8 8 8 8 8 8 8 8 8 8
20 19 19 18 18 17 17 17 16 16 15 15 14 14 14 13 13 12 12 11 11 10 10 10 9 9 9 9 9 9 9 9 9 9 9 9 10 9 9 9 9 9 10
21 20 20 19 19 18 18 18 18 17 17 17 16 16 16 15 15 14 14 14 13 13 12 12 12 12 11 11 11 11 11 11 11 11 10 11 11 11 11 11 11 11 11
22 22 21 21 21 20 20 20 19 19 19 19 19 18 18 17 17 17 16 16 16 15 15 14 14 14 14 13 13 13 12 13 13 12 12 12 12 13 13 12 12 12 12
24 23 23 23 23 23 22 22 22 22 21 21 21 21 20 20 20 19 19 18 18 18 17 17 17 16 16 16 16 15 15 15 15 15 14 14 14 14 14 14 14 14 14
25 25 25 24 25 25 24 24 24 24 23 23 23 23 23 22 22 22 21 21 21 20 20 20 20 19 19 18 18 18 18 18 17 17 17 17 16 16 16 16 16 16 16
26 26 26 26 26 27 27 26 26 26 25 25 25 25 25 25 24 24 24 23 23 23 23 22 22 22 22 21 21 20 20 21 20 20 19 19 19 18 18 18 18 18 18
27 27 28 28 28 28 28 28 28 28 28 28 28 28 28 27 27 27 27 26 26 25 25 25 25 25 24 24 24 23 22 22 22 22 22 21 21 20 20 20 20 20 20
29 29 29 29 30 29 29 29 30 30 30 30 30 30 30 30 30 29 29 29 29 29 28 28 28 28 27 27 26 26 25 25 24 24 24 24 23 23 22 22 22 21 22
32 31 31 31 31 31 31 31 31 31 31 31 31 31 31 32 31 31 31 31 31 31 31 31 31 31 30 30 29 29 28 27 27 27 26 26 26 25 25 24 24 24 23
33 33 33 32 32 32 32 32 32 32 32 32 33 33 33 34 34 34 33 33 33 33 33 33 33 33 33 32 32 32 31 30 30 30 29 28 28 27 27 27 26 26 25
34 34 34 33 33 33 33 34 34 34 34 34 35 35 35 35 35 35 35 35 35 35 36 36 35 35 35 35 35 34 34 33 33 32 32 31 31 30 30 29 29 28 27
35 35 35 36 35 35 35 35 35 36 36 37 37 37 37 37 37 37 37 37 37 38 38 38 38 38 38 37 37 37 37 37 36 36 35 34 33 33 32 31 31 30 30
36 36 37 37 37 37 37 37 37 37 38 38 39 40 40 39 39 40 40 40 40 40 40 41 41 41 41 41 40 40 40 40 39 39 38 38 37 36 35 35 34 33 32
37 37 37 37 37 37 38 38 37 37 38 39 40 41 41 42 42 43 43 43 43 43 43 43 43 43 43 44 44 43 43 42 42 42 41 41 41 40 39 38 37 36 35
36 37 37 37 37 37 36 37 37 38 38 39 39 40 41 42 43 43 44 44 44 44 44 43 44 44 44 45 45 46 46 45 45 44 44 44 43 42 42 41 40 40 39
36 36 36 37 37 37 37 37 37 38 39 39 39 40 41 41 42 42 43 43 44 44 44 44 44 45 45 46 46 47 47 47 47 47 46 46 45 44 44 43 42 42 41
35 36 36 36 37 37 37 37 37 38 38 39 40 40 41 42 42 43 43 43 43 43 44 44 45 45 45 45 45 45 46 47 48 48 48 48 47 47 46 45 45 45 44
35 36 36 36 36 36 36 37 37 38 39 40 40 41 42 43 43 43 42 42 42 43 43 44 45 46 46 46 45 45 46 47 49 50 50 49 49 48 48 48 47 47 47
34 35 36 37 37 37 37 37 38 38 38 38 39 39 40 42 42 42 42 43 43 44 44 45 45 46 46 47 47 47 47 48 48 50 51 51 50 50 49 49 49 49 48
34 35 35 36 37 37 37 37 37 37 37 37 37 38 39 40 41 42 43 44 45 45 45 46 47 47 47 47 47 48 48 49 49 51 52 53 52 52 51 50 50 51 51
34 34 34 35 36 37 37 36 37 37 36 36 37 38 38 39 39 40 42 44 45 46 46 46 47 48 49 49 49 50 50 50 50 51 52 53 54 53 53 51 50 50 51
34 34 34 35 35 35 36 36 36 36 37 37 38 38 38 39 40 40 41 43 45 46 47 48 48 48 48 49 50 50 50 50 50 50 51 52 54 54 54 54 53 52 52
34 34 34 34 34 35 35 35 36 36 36 37 37 37 38 38 39 40 41 43 44 45 46 47 47 48 48 48 49 49 49 50 50 50 50 52 53 54 54 54 54 53 52
33 33 33 33 33 34 34 35 35 35 35 36 37 37 37 38 38 39 41 41 42 43 44 45 46 46 47 47 47 48 48 49 50 50 50 51 52 53 55 55 54 54 54

GEFSSE_500_meanwind_174.txt.gz
Wind_Speed
17 16 15 15 14 14 14 13 13 13 12 12 11 10 10 10 9 9 9 9 9 9 9 9 8 8 8 8 8 8 8 8 8 8 8 8 8 8 7 7 7 7 7
18 18 17 16 16 15 15 15 15 14 14 13 12 12 11 11 11 11 10 10 10 10 10 10 10 10 9 9 9 9 9 9 9 9 9 10 9 9 9 8 8 8 8
20 19 18 18 17 17 17 17 16 16 15 14 14 13 13 13 12 12 12 12 12 12 11 11 11 11 11 11 11 11 10 10 11 11 11 11 11 11 11 10 10 10 10
22 21 20 19 19 19 19 18 18 17 17 16 16 15 15 15 14 14 14 14 14 14 14 13 13 13 13 13 13 13 12 12 12 12 12 12 12 12 12 12 12 12 12
23 23 22 21 21 21 21 20 20 19 19 19 18 18 17 17 17 16 16 16 16 16 16 15 15 14 15 15 15 15 15 14 14 14 14 14 14 14 14 14 14 14 14
25 24 23 23 23 23 22 22 22 22 21 21 21 20 20 20 19 19 19 19 19 18 18 18 18 17 17 17 17 17 17 17 16 16 16 16 16 16 16 16 16 16 15
26 26 25 24 24 24 24 23 24 24 24 24 23 23 22 22 22 21 21 21 21 21 21 21 20 20 20 20 19 19 19 19 18 18 18 18 17 17 17 17 17 17 17
27 27 26 25 25 25 25 25 25 25 25 25 25 25 25 25 24 24 24 23 23 23 23 23 23 22 22 22 22 22 22 21 21 21 20 20 20 20 20 19 19 19 19
28 28 27 27 26 26 26 25 26 26 26 27 27 27 26 26 26 26 26 26 25 25 25 25 25 25 25 25 24 24 24 24 24 23 22 22 22 22 22 22 21 21 21
30 29 28 28 28 27 27 27 27 27 27 27 27 27 27 27 27 27 27 27 27 27 27 27 27 27 27 27 27 27 26 26 26 25 25 25 25 25 24 24 23 23 23
31 30 30 30 30 29 29 28 28 28 28 28 28 28 28 28 28 28 28 29 29 29 29 29 29 29 29 29 29 29 28 28 28 28 27 27 27 27 27 26 25 25 25
32 31 31 31 31 31 31 31 31 31 31 30 30 30 30 30 30 30 30 30 31 31 32 32 32 32 32 32 32 32 31 30 30 30 30 29 29 29 29 29 28 27 27
32 32 32 32 32 33 33 33 33 33 33 33 32 32 32 32 32 32 32 32 32 32 33 33 34 34 35 35 35 35 34 34 33 33 32 32 32 31 31 31 31 30 29
34 33 33 33 33 33 33 33 34 34 34 34 34 34 34 33 33 34 34 34 34 34 34 34 35 36 36 36 37 37 37 37 36 36 35 35 35 35 34 34 33 33 32
34 34 34 33 33 33 33 34 34 34 34 34 34 35 35 35 35 35 35 35 35 35 35 36 36 37 37 38 38 38 38 39 39 39 38 37 37 37 37 37 36 36 36
34 33 33 33 33 33 33 34 34 33 33 33 34 34 35 36 35 36 36 36 36 36 36 37 37 38 38 39 39 39 40 40 40 40 40 40 40 40 39 39 39 38 38
32 32 32 33 33 33 33 33 34 34 34 34 34 35 35 36 36 37 37 38 38 38 38 38 38 38 38 39 40 41 41 41 41 41 41 41 41 42 42 41 41 41 41
32 32 32 32 32 33 34 34 34 34 34 34 35 35 35 36 36 37 38 39 39 39 39 39 39 39 39 39 39 40 41 41 41 41 42 42 42 43 44 44 44 43 43
32 32 33 33 33 34 35 35 35 35 35 35 36 36 37 38 38 38 38 39 40 40 40 40 40 40 40 40 40 40 40 41 42 42 42 42 42 43 44 44 44 45 45
33 33 33 34 35 35 35 35 36 36 36 36 36 37 38 39 39 39 39 40 40 41 41 41 41 40 40 40 41 41 41 41 42 42 43 43 43 43 44 44 45 45 46
34 34 35 35 35 35 35 35 36 36 37 37 36 37 37 38 38 38 38 38 39 39 40 40 40 40 41 41 42 42 42 42 43 43 44 44 44 44 44 44 44 44 45
34 34 35 35 36 36 35 35 36 36 37 37 37 36 36 37 37 37 37 37 38 38 39 40 40 40 41 41 42 43 43 44 44 44 45 45 45 46 46 45 44 45 46
35 35 35 35 35 35 35 36 36 36 36 36 36 37 38 38 37 37 37 37 38 39 39 39 40 41 41 42 43 44 44 45 45 45 45 46 47 46 46 46 46 47 47
35 35 35 35 35 35 35 36 36 36 36 36 37 37 37 37 37 37 37 38 39 39 40 40 40 41 42 42 43 44 45 45 46 46 46 46 46 46 46 47 47 46 47
35 35 35 35 35 36 36 36 36 36 36 36 37 37 37 37 38 38 38 39 39 39 39 39 40 41 42 42 43 44 45 46 47 47 46 46 46 47 48 48 49 49 49
35 35 34 34 35 35 36 36 37 37 37 37 37 36 36 37 37 38 38 38 38 38 39 39 40 41 42 42 43 44 44 45 46 47 48 47 47 47 48 49 50 50 50

GEFSSE_500_meanwind_180.txt.gz
Wind_Speed
13 13 13 13 13 12 12 11 11 11 11 11 10 10 10 10 10 10 10 10 10 10 10 10 10 10 10 10 10 10 9 9 10 10 10 10 9 9 9 9 9 9 9
15 15 15 14 14 14 13 13 13 13 12 12 12 12 12 11 11 12 11 11 12 11 11 11 11 11 11 12 12 11 11 10 10 11 11 11 11 11 11 11 11 11 10
17 16 16 16 15 15 15 14 14 14 14 14 14 14 14 14 13 13 13 13 13 13 13 13 13 13 13 12 12 13 13 12 12 12 12 12 13 13 13 12 12 12 12
19 18 18 18 17 17 16 16 16 16 15 15 15 15 15 15 15 15 15 15 15 15 15 15 15 15 15 14 14 14 14 14 14 14 14 14 14 14 14 14 13 13 13
20 20 20 19 19 18 17 17 18 18 17 17 17 17 17 17 17 17 18 18 17 17 18 17 17 17 17 16 16 16 16 16 16 16 16 16 16 16 15 15 15 15 15
22 22 21 21 21 21 20 19 20 20 20 20 20 20 20 20 20 20 20 20 20 20 20 20 19 19 19 19 18 18 18 18 17 17 17 18 17 17 17 17 17 17 17
24 24 23 23 23 23 23 22 22 22 22 22 23 23 23 23 23 23 23 23 22 22 22 22 22 21 21 21 21 20 20 20 20 19 19 19 19 19 19 19 19 18 18
25 25 25 26 25 25 25 24 24 24 24 24 24 24 24 24 24 24 25 24 24 24 24 24 23 23 23 23 22 22 22 22 22 22 21 21 21 21 21 21 21 21 21
27 27 27 27 27 27 27 26 25 25 25 25 26 26 26 26 26 26 26 26 26 26 25 25 25 25 25 25 24 24 24 23 23 23 23 23 23 23 23 23 24 24 23
28 29 29 29 29 29 28 27 26 26 26 27 27 27 27 27 26 26 26 26 26 27 27 27 27 27 27 27 26 26 26 26 26 26 25 25 25 25 25 25 25 25 25
29 30 30 30 30 30 29 27 27 27 27 28 28 28 28 28 27 27 27 27 27 28 28 28 29 29 29 29 29 29 29 29 29 28 28 27 28 28 27 27 27 27 27
30 30 30 30 31 31 30 29 28 28 28 28 28 28 28 28 28 28 28 28 28 29 29 29 30 30 31 31 31 31 31 31 31 31 31 31 30 30 30 30 30 29 29
30 30 30 30 31 31 31 30 29 28 28 28 28 28 28 28 28 29 29 29 30 30 30 31 31 32 32 33 33 33 33 34 33 34 34 34 34 33 33 33 32 32 32
30 30 30 30 30 31 30 29 28 28 28 28 28 29 29 29 29 30 30 31 32 32 33 33 33 34 34 34 34 35 35 35 35 35 36 36 36 36 35 35 35 35 35
30 30 29 30 29 29 30 29 29 28 28 29 30 30 30 30 31 32 33 34 34 35 35 35 36 36 36 36 35 36 36 36 36 36 36 37 37 38 38 37 37 37 37
30 29 29 29 29 29 29 29 29 29 29 30 31 30 31 32 32 33 34 35 35 35 36 36 37 37 37 37 37 37 37 37 37 37 37 37 38 38 39 39 39 40 39
30 30 30 30 29 30 30 30 30 30 29 30 31 31 32 32 33 33 34 35 35 36 36 37 37 37 38 38 38 39 38 38 38 38 38 39 39 39 40 40 41 41 42
31 30 30 30 30 31 31 31 31 31 31 31 31 31 32 33 33 34 35 35 36 36 37 37 38 38 39 39 39 39 39 40 40 40 40 40 40 41 42 42 42 43 43
31 31 31 31 31 32 32 32 33 34 34 33 32 33 33 34 35 35 35 36 37 37 38 38 38 39 39 40 40 41 41 41 41 42 41 42 42 42 43 43 43 43 44
31 31 31 32 32 33 33 33 33 34 35 35 34 34 35 35 36 35 35 36 37 38 38 38 39 39 40 40 40 40 41 42 42 42 43 43 43 43 43 43 43 43 44
31 32 32 33 33 34 33 34 35 35 36 37 37 36 35 36 36 36 36 36 36 37 38 38 39 39 38 39 40 40 41 42 43 43 43 44 43 42 43 44 44 44 44
31 32 33 34 34 34 35 35 36 37 37 37 37 37 36 36 36 36 36 37 37 37 38 38 38 38 39 39 40 40 41 41 42 43 44 44 44 43 42 43 44 44 44
32 32 33 34 34 34 35 36 36 37 37 37 37 37 37 37 37 36 36 38 37 37 38 38 38 39 40 41 41 41 41 40 41 42 43 43 43 43 43 43 44 45 44
31 32 32 33 35 35 35 37 37 37 37 36 37 37 37 37 37 36 36 36 36 37 38 38 38 39 39 40 40 41 41 40 41 41 42 43 43 44 44 44 44 45 47
32 33 33 33 34 35 36 37 37 37 37 37 37 37 37 37 37 37 37 36 36 37 37 37 39 39 39 40 40 40 41 41 41 42 42 43 44 45 46 46 45 45 45
32 33 33 34 34 35 36 36 37 38 37 37 37 37 37 37 38 38 38 38 38 37 37 38 39 39 40 40 40 41 41 41 42 43 43 43 44 45 45 45 45 46 46

GEFSSE_500_meanwind_186.txt.gz
Wind_Speed
13 13 12 12 11 11 10 10 9 9 9 8 8 8 8 8 8 8 8 8 8 9 9 9 9 9 10 10 10 10 10 10 10 9 10 10 10 10 10 10 10 11 11
15 14 14 13 13 13 12 11 11 11 10 10 10 9 9 9 9 9 10 10 10 10 10 11 11 11 11 11 11 11 11 11 11 11 11 11 11 11 12 12 12 12 12
17 16 16 15 14 14 14 13 13 12 12 12 12 11 11 11 11 11 11 12 12 12 12 12 12 13 13 13 13 13 13 13 13 13 13 12 12 12 13 13 13 13 13
19 18 17 17 16 15 15 15 14 14 14 13 13 13 13 13 13 13 13 13 13 13 14 14 14 15 15 15 15 15 15 14 14 14 14 14 14 14 15 15 15 15 15
20 20 19 18 18 17 17 17 16 16 16 15 15 15 15 15 15 15 15 15 15 16 16 16 16 17 17 17 17 17 17 16 16 16 16 16 16 16 16 16 16 16 16
22 21 21 20 20 19 19 19 19 19 18 18 18 17 17 17 17 17 18 18 18 18 18 18 18 18 19 19 18 18 18 18 18 18 18 18 18 18 18 17 17 17 18
24 23 23 22 21 21 21 21 21 21 21 21 20 19 19 20 20 20 20 20 20 20 21 21 20 20 20 20 20 19 19 19 19 19 19 19 19 19 19 19 19 19 19
26 25 24 24 23 23 23 22 23 23 23 23 22 21 21 21 21 22 22 22 22 22 22 22 22 21 21 21 21 21 21 21 21 21 21 21 22 21 21 21 21 21 21
28 27 26 26 25 25 24 24 24 24 24 24 23 22 23 22 23 23 23 23 23 23 23 22 22 22 23 23 23 23 23 23 23 23 23 24 24 24 24 23 23 23 23
29 28 28 28 26 26 26 25 25 26 25 25 25 24 24 23 23 24 24 24 24 24 23 23 23 24 24 24 25 25 25 26 25 25 26 26 26 26 26 26 26 26 25
30 29 29 28 27 27 27 27 27 26 26 26 26 25 25 24 24 24 24 24 24 24 24 24 24 25 25 26 26 26 27 28 28 28 28 28 29 29 29 29 28 28 28
30 29 29 28 28 27 27 27 27 26 26 27 27 27 26 25 25 25 25 25 25 25 25 26 26 27 27 28 28 28 28 29 30 30 30 30 30 31 31 31 31 31 31
31 30 29 29 28 28 28 27 27 27 27 27 26 26 26 26 26 26 26 25 26 26 27 27 28 28 29 29 30 30 30 30 31 32 32 32 32 32 32 32 32 33 33
31 31 31 31 30 30 29 28 28 27 27 26 27 26 26 26 26 26 27 27 27 28 28 29 30 30 30 31 31 32 32 32 33 33 33 33 33 33 33 34 34 34 35
32 32 31 31 30 30 30 29 28 27 26 27 26 26 25 26 26 27 28 29 29 30 30 30 30 31 31 32 32 32 33 33 34 34 34 34 35 35 35 36 36 36 36
33 33 32 32 32 32 31 31 29 28 27 28 27 26 27 27 27 28 29 30 30 31 31 31 31 32 33 33 33 34 34 35 35 36 36 36 36 37 38 37 37 37 38
33 33 33 33 33 33 32 32 31 30 29 29 28 28 28 28 29 30 31 31 31 31 32 32 33 33 34 34 35 35 36 37 37 37 38 38 38 39 39 39 39 39 39
33 33 33 33 33 33 33 32 32 31 30 30 30 29 29 29 30 31 32 32 32 32 33 33 33 34 35 35 36 37 37 38 38 38 39 39 40 40 41 41 41 41 41
33 33 33 33 33 33 33 32 32 32 32 32 32 32 32 31 32 32 32 33 33 33 34 34 35 36 36 37 38 37 38 38 39 39 39 40 40 41 42 42 42 43 43
33 33 33 34 34 34 33 32 32 33 32 32 33 33 33 32 33 33 34 34 33 34 35 35 36 37 37 38 38 37 38 38 39 39 40 41 41 42 42 43 43 44 44
32 32 33 33 33 33 33 33 33 33 34 34 34 34 34 33 34 34 34 34 35 35 36 36 37 37 38 38 38 38 39 39 40 40 41 41 42 43 44 44 45 45 45
30 31 31 32 32 32 32 32 33 34 34 34 35 35 35 35 35 35 34 34 35 36 36 37 37 38 38 39 39 40 40 40 41 41 41 42 42 43 45 46 46 46 47
30 30 31 31 32 32 32 32 33 34 35 36 35 35 35 35 36 36 36 36 36 36 37 38 38 39 39 40 40 41 41 41 41 42 43 44 44 45 45 46 47 47 47
29 30 31 31 32 33 34 34 34 35 36 37 37 36 36 36 36 38 37 37 37 38 39 39 39 40 40 40 41 42 42 42 42 42 43 44 44 44 44 44 44 46 46
30 30 31 31 33 34 35 35 35 36 37 37 37 37 37 37 37 38 39 40 39 39 39 40 41 41 41 41 41 41 42 42 43 43 42 42 43 43 44 44 44 45 45
30 31 31 32 33 34 34 36 36 36 37 37 36 37 38 38 39 40 40 40 40 41 41 42 42 42 42 42 42 41 42 42 42 42 42 42 42 42 43 44 44 44 44

GEFSSE_500_meanwind_192.txt.gz
Wind_Speed
16 15 14 13 12 11 11 10 10 9 9 9 9 8 8 7 7 7 7 7 7 7 7 7 7 8 7 8 8 8 8 9 9 9 9 9 9 9 9 9 9 9 9
18 17 16 15 14 13 13 12 11 11 11 11 10 10 10 9 9 8 8 8 8 8 8 8 9 9 9 10 10 10 10 10 11 10 10 10 10 11 11 11 11 11 11
20 19 18 17 16 15 14 14 13 12 12 12 12 11 11 11 10 10 10 10 10 10 10 10 10 11 11 11 11 12 12 12 12 12 12 12 12 12 12 13 13 13 13
21 20 19 19 18 17 16 15 15 14 14 13 13 13 13 13 12 12 12 12 12 12 12 12 12 13 13 13 13 13 14 13 13 13 13 13 13 13 13 14 13 14 14
22 22 21 20 19 18 17 17 16 16 15 15 15 15 15 15 14 14 14 14 14 14 15 15 15 15 15 15 15 15 15 15 14 14 14 14 14 14 15 15 15 15 15
24 23 22 21 21 20 19 19 18 18 17 16 16 17 17 16 16 16 16 16 16 16 17 17 17 17 17 17 17 16 16 16 16 16 16 16 16 16 16 17 17 17 17
26 25 24 23 22 22 21 20 20 19 19 18 18 18 18 18 18 18 18 18 18 18 18 18 18 18 18 18 18 17 17 17 17 17 18 18 18 18 18 19 19 19 19
27 27 26 25 24 23 22 21 21 20 20 20 19 19 19 19 19 19 20 20 20 20 20 20 20 19 19 19 19 19 19 19 19 19 20 20 20 20 20 20 21 21 21
29 28 27 26 26 25 24 22 22 21 21 21 20 20 20 20 21 21 21 21 21 21 21 21 21 20 20 20 20 21 21 21 22 22 22 22 22 23 23 22 22 22 22
30 29 28 27 26 25 25 24 23 22 22 21 21 20 20 20 20 21 22 22 22 22 22 21 21 21 21 21 21 22 22 23 23 24 24 24 24 25 25 25 25 25 24
30 30 29 29 28 27 26 26 25 24 24 23 22 22 21 21 21 22 22 22 23 23 23 23 22 22 22 23 23 23 24 24 25 25 26 26 26 27 27 27 27 27 27
31 31 31 30 29 28 28 28 27 26 25 25 24 24 23 23 24 24 24 24 24 24 24 24 24 24 24 24 25 25 26 26 26 27 27 28 28 28 28 29 29 29 29
32 31 31 31 30 30 29 29 29 28 27 26 25 25 25 25 25 25 25 26 25 25 25 25 25 26 26 26 26 27 27 28 28 28 29 29 29 30 30 30 30 31 30
34 32 32 32 32 31 30 30 30 29 28 28 27 27 27 27 27 26 27 27 26 26 26 25 26 27 27 27 27 28 28 29 29 29 30 30 30 30 31 32 32 32 32
35 34 33 33 33 33 32 31 31 31 30 30 30 29 28 28 28 28 28 28 27 27 26 26 26 27 27 28 28 29 30 30 31 31 32 32 32 32 33 33 34 34 34
35 35 33 33 34 34 34 33 32 32 31 31 31 31 30 29 30 30 29 28 28 27 27 27 27 27 28 28 29 29 30 31 32 33 33 34 34 34 35 35 36 36 37
35 35 34 34 34 34 34 34 33 32 32 32 32 33 33 32 31 30 30 29 28 28 28 28 28 29 29 29 30 31 32 32 33 34 35 35 36 36 36 37 38 38 38
34 34 34 34 35 35 35 35 34 33 34 34 34 34 34 33 32 31 30 30 30 30 30 30 30 31 31 31 32 32 33 33 34 35 36 37 37 37 38 38 38 39 40
34 34 34 34 34 35 35 35 35 34 35 35 35 34 33 34 33 33 32 32 32 32 32 32 33 33 32 32 32 33 33 34 35 36 36 37 38 38 39 39 39 40 40
34 34 34 34 35 35 35 36 36 36 35 35 34 34 33 33 33 32 33 32 32 33 33 34 34 34 34 34 34 34 34 35 36 37 37 38 39 39 40 40 40 40 41
33 34 34 34 34 34 35 36 35 35 34 34 33 34 34 33 33 33 33 33 33 34 34 35 35 35 35 35 35 35 36 37 37 38 38 38 39 40 40 40 40 40 41
31 32 34 33 33 34 35 36 36 35 34 34 35 34 35 35 35 34 34 34 34 35 35 36 36 36 36 37 37 37 38 38 38 39 39 39 40 41 41 41 41 41 41
30 31 32 32 32 33 34 36 36 36 36 35 35 35 36 36 36 36 35 36 36 36 37 37 37 37 37 38 39 39 39 39 39 39 39 40 40 41 41 41 42 42 43
30 31 32 32 33 34 35 36 37 37 38 37 37 37 37 38 38 38 37 37 37 37 38 38 39 39 39 40 40 41 41 41 40 40 40 40 40 41 41 41 41 42 43
30 31 32 32 32 33 34 35 36 37 38 38 39 39 39 38 39 39 38 38 38 38 39 39 40 40 41 42 42 42 41 41 41 41 40 40 40 41 41 42 42 42 42
29 30 31 32 32 33 34 35 36 37 38 38 39 39 39 39 39 39 39 39 39 40 40 41 42 42 43 43 43 42 42 42 42 42 42 42 42 42 42 42 42 42 43

GEFSSE_500_meanwind_198.txt.gz
Wind_Speed
18 17 17 16 15 14 13 13 12 12 11 11 10 10 10 10 10 9 9 9 8 8 8 8 8 8 8 8 8 8 8 9 9 9 9 9 9 9 9 9 9 9 9
20 19 18 18 17 16 15 14 14 13 13 12 12 12 11 11 11 10 10 10 10 10 10 9 9 9 9 9 9 9 10 10 10 10 10 10 10 10 10 10 10 10 10
21 21 20 19 19 17 17 16 15 15 15 14 14 13 12 12 12 11 11 11 11 11 11 11 11 11 11 11 11 11 11 11 11 11 11 11 11 11 11 11 12 12 12
23 22 21 21 20 19 18 17 17 16 16 16 15 14 14 13 13 13 12 12 12 12 12 13 13 13 13 13 13 13 14 13 13 13 12 12 12 13 13 13 13 14 14
24 24 24 23 22 21 20 19 19 18 17 17 16 16 15 15 15 14 14 14 13 13 13 14 14 15 15 15 15 15 15 15 14 14 14 14 14 14 15 15 15 15 15
25 25 25 24 23 22 21 21 20 19 19 18 17 16 16 16 15 15 15 15 15 15 15 15 16 16 16 16 17 16 16 16 16 16 16 16 16 16 16 16 16 17 16
26 26 25 25 24 23 22 22 21 20 20 19 18 17 17 17 16 16 16 16 15 15 16 16 17 17 18 18 18 18 18 17 17 17 17 18 18 18 18 18 18 18 18
28 27 27 26 25 24 23 23 22 22 21 20 19 19 18 18 18 18 17 17 16 16 16 17 17 18 18 19 19 19 19 19 19 19 19 20 20 20 20 20 20 20 20
29 29 28 27 26 26 25 24 24 23 23 22 21 21 20 19 19 19 18 18 18 18 18 18 18 18 19 19 20 20 21 21 21 21 21 21 22 22 22 22 22 22 22
31 30 30 29 28 27 27 26 25 25 24 24 23 22 21 21 20 20 20 20 20 20 19 19 20 20 20 20 21 21 21 22 23 23 23 24 24 23 23 24 24 24 24
33 32 31 31 30 29 28 28 27 27 26 25 25 24 23 23 22 22 22 21 21 22 21 21 21 21 21 22 22 22 22 23 24 25 25 25 25 25 25 25 25 25 26
33 33 33 32 31 30 30 29 29 28 28 27 26 26 25 25 24 24 23 23 23 23 23 23 23 23 23 23 23 23 24 24 25 25 25 26 26 26 26 26 27 27 27
34 34 34 33 33 32 31 31 31 30 29 28 28 28 27 27 27 26 25 25 25 25 26 25 25 25 24 24 24 24 25 24 24 25 25 26 26 27 27 28 28 29 29
34 33 34 34 33 32 32 32 32 32 31 31 30 29 29 28 28 28 27 27 27 28 28 28 27 27 26 26 25 25 25 25 25 25 26 26 27 28 29 29 30 31 31
34 34 33 33 33 33 33 33 33 33 33 32 31 31 30 29 29 29 29 29 29 29 30 29 29 28 28 27 27 27 27 26 26 26 27 27 28 29 30 31 32 32 33
34 34 34 34 33 32 33 33 34 33 32 32 32 31 31 31 31 31 31 31 31 31 31 30 30 30 29 29 29 29 29 28 28 28 28 29 30 30 31 32 33 34 35
33 34 35 35 35 34 34 34 34 33 33 33 33 33 32 33 33 33 32 33 33 33 33 33 32 31 31 31 31 31 31 30 30 30 31 31 32 33 33 34 35 35 36
33 34 35 35 36 36 35 35 35 34 34 34 34 34 34 34 34 35 34 35 35 34 34 34 33 32 32 32 32 32 32 32 32 33 33 33 34 34 35 35 36 36 37
32 33 36 36 36 37 36 36 36 36 35 35 35 35 36 36 36 36 36 35 35 35 34 35 35 34 34 34 33 33 34 34 34 34 34 35 35 35 36 36 37 37 38
32 32 34 36 37 37 37 37 37 37 37 36 36 36 36 38 37 37 36 35 35 36 36 36 36 35 35 35 35 35 35 35 35 35 36 36 37 37 37 37 38 38 39
31 32 33 35 35 36 37 37 37 37 37 36 37 37 37 37 38 38 38 36 36 36 37 36 37 36 36 36 36 37 36 36 36 37 37 38 38 38 38 38 39 39 40
31 31 32 34 35 35 36 36 37 36 36 37 37 38 38 38 38 38 38 37 37 38 36 36 36 37 37 37 37 37 37 37 38 38 39 39 39 39 40 40 40 40 40
30 30 31 32 34 35 36 36 36 36 37 37 38 39 39 38 39 40 39 39 39 39 38 37 37 38 38 38 39 39 39 38 39 39 40 40 40 40 40 41 41 41 41
30 31 31 31 32 34 35 36 36 36 37 38 39 39 40 39 39 40 40 40 40 40 39 38 38 39 39 40 41 41 41 41 40 40 40 41 41 41 41 42 42 42 42
30 31 31 31 32 33 34 35 35 37 38 38 38 37 39 40 40 40 40 41 40 40 40 39 39 40 40 40 41 42 42 43 43 42 42 42 43 43 43 43 43 43 43
29 30 31 31 33 34 34 35 35 36 37 37 38 38 39 40 40 40 41 41 41 41 41 41 41 41 41 42 42 42 43 44 44 44 44 44 44 44 44 44 44 44 44

GEFSSE_500_meanwind_204.txt.gz
Wind_Speed
17 17 16 15 14 14 13 13 12 12 12 11 11 11 11 11 10 10 11 11 11 10 10 10 10 10 10 10 9 9 9 9 9 9 9 9 9 9 9 9 9 9 9
20 19 18 17 17 16 15 15 14 13 13 13 13 13 12 12 12 12 12 12 12 11 11 11 11 11 11 11 11 11 11 10 10 10 10 10 10 10 10 10 10 11 11
21 20 19 19 19 18 17 17 16 16 15 15 14 14 14 13 13 13 13 13 13 12 12 12 11 11 11 11 12 12 12 12 12 12 12 12 12 12 12 12 12 12 13
23 22 22 21 20 20 19 19 18 18 17 16 16 16 15 15 14 14 14 14 14 13 13 13 13 12 12 13 13 13 13 13 13 13 13 13 13 13 13 13 14 14 14
25 24 23 23 22 22 21 21 20 19 19 18 17 17 17 16 15 15 15 15 15 14 14 14 14 14 14 14 15 15 15 15 15 15 15 14 14 14 15 15 15 15 15
26 26 25 24 24 23 23 22 21 20 20 19 19 18 18 17 17 16 16 16 16 15 15 15 15 15 16 16 16 16 16 16 16 16 16 16 16 16 16 16 17 17 17
28 27 26 26 25 25 24 24 23 22 21 20 20 20 19 19 18 18 18 17 17 17 17 17 16 17 17 17 17 17 17 17 17 17 18 18 18 18 18 18 18 19 19
29 28 27 27 26 26 26 25 24 24 23 22 22 21 21 20 20 19 19 19 19 19 19 18 18 18 18 18 18 18 18 19 18 19 19 19 20 20 20 20 20 20 20
30 29 28 28 27 27 26 26 26 25 24 24 24 23 22 22 21 21 20 20 20 20 20 19 19 19 19 19 19 19 19 19 19 20 20 21 21 21 22 22 22 21 21
32 31 30 29 28 28 27 27 26 26 26 25 25 25 24 24 23 22 22 22 21 22 21 21 21 21 21 20 20 20 20 20 20 21 21 22 22 23 23 23 23 23 23
32 33 32 30 30 29 29 28 28 28 28 28 27 27 26 26 25 24 23 23 23 23 23 22 22 22 22 22 22 22 22 21 21 22 23 23 24 24 24 24 24 24 25
33 33 32 32 31 30 30 30 30 30 30 29 29 28 28 27 27 26 25 25 24 24 24 23 23 23 24 24 24 24 24 23 23 24 24 25 25 25 25 25 25 26 26
33 33 33 32 32 32 31 31 32 31 31 30 30 30 29 29 28 27 26 26 26 25 25 26 25 26 26 26 26 26 26 25 25 25 25 26 26 26 26 26 26 26 27
32 34 34 33 33 33 32 33 33 33 32 32 31 31 31 30 29 29 28 28 28 27 27 28 28 28 28 28 28 28 27 27 27 27 27 27 27 27 27 27 27 28 28
32 35 36 35 34 34 33 32 33 34 34 34 33 33 32 31 31 30 30 29 29 29 29 30 30 30 30 29 29 29 29 29 30 29 29 28 28 27 28 28 29 29 29
33 35 36 36 35 35 35 34 34 35 35 35 34 33 33 33 33 33 33 33 33 32 32 32 32 32 31 31 31 31 30 31 31 31 30 30 29 30 30 30 31 31 31
33 35 36 36 36 36 34 33 35 35 35 34 34 34 33 34 33 34 34 35 35 33 33 34 34 34 33 33 33 33 33 33 34 33 33 33 32 32 33 33 33 33 33
32 35 37 37 36 36 35 33 34 35 35 35 35 35 34 34 35 35 36 36 35 35 35 35 35 34 35 35 35 35 35 35 36 35 35 35 35 35 35 35 35 35 35
30 34 36 36 36 35 37 34 33 35 36 36 36 36 36 35 36 37 37 37 37 37 37 36 36 35 35 36 36 36 36 36 36 37 37 38 38 37 37 37 37 37 37
29 32 34 35 35 35 36 34 33 34 35 36 36 36 37 37 36 37 38 38 38 38 38 37 36 37 36 37 37 37 37 38 38 38 38 39 39 38 39 39 39 39 39
29 30 31 33 33 33 33 34 33 34 35 36 36 37 38 38 38 38 37 38 39 39 39 38 38 37 37 38 38 38 38 39 39 39 39 39 39 39 40 40 40 40 40
27 29 31 31 32 32 32 33 33 33 35 35 36 36 37 38 39 39 39 39 38 38 39 39 39 37 38 38 38 38 38 39 40 40 40 40 41 41 41 41 41 42 42
27 28 29 29 31 32 33 33 33 33 35 36 37 37 37 38 39 39 40 39 39 40 40 40 39 38 38 38 38 38 38 39 39 40 40 41 41 42 42 42 42 42 43
26 28 29 29 30 31 33 34 34 33 34 35 36 37 38 39 40 40 40 40 40 40 41 41 41 41 40 40 40 40 40 40 40 40 40 41 42 43 43 43 43 44 44
26 26 27 28 29 31 32 33 33 33 34 35 36 37 38 38 39 40 40 41 41 40 41 42 43 43 42 42 41 42 43 43 43 43 42 42 43 43 44 44 44 45 45
25 26 27 27 28 30 32 33 33 33 34 35 35 36 37 38 39 40 40 40 41 41 42 42 43 43 43 42 42 42 43 44 44 44 44 43 43 44 45 45 46 46 46

GEFSSE_500_meanwind_210.txt.gz
Wind_Speed
18 18 18 18 18 16 15 14 13 12 10 10 9 9 9 8 8 8 8 8 8 8 8 8 8 8 8 8 8 8 8 9 9 9 9 9 9 9 9 9 10 10 10
19 20 20 19 19 18 17 16 15 14 13 12 11 10 10 10 10 10 10 10 10 10 9 9 9 9 9 9 9 9 9 9 10 10 10 10 10 10 10 11 11 11 11
20 20 20 20 20 19 19 18 17 16 15 14 13 12 12 12 12 11 11 11 11 11 11 10 10 10 11 10 10 10 11 11 11 12 12 12 12 12 12 12 12 13 13
22 22 22 22 21 20 21 21 19 18 17 16 16 15 14 13 13 13 13 12 12 13 12 12 12 12 12 12 12 12 12 13 13 13 13 13 13 13 13 13 13 14 14
24 24 23 23 23 22 22 22 21 20 19 18 17 16 15 15 14 14 14 14 13 13 13 13 13 13 13 13 13 13 13 13 13 13 14 14 14 14 14 15 15 15 15
27 26 25 25 25 24 24 23 23 22 21 20 19 18 17 16 15 15 14 14 14 14 14 14 15 14 14 14 14 14 14 15 15 15 15 15 15 15 15 16 16 17 17
28 27 27 27 27 26 25 25 24 24 23 22 21 19 18 17 16 16 16 15 15 16 16 16 16 16 16 16 16 16 16 16 16 16 16 16 16 16 17 17 18 18 18
29 30 29 29 28 28 27 26 26 25 25 24 22 21 20 19 18 18 17 17 16 17 17 17 17 17 17 17 17 17 17 17 17 17 18 18 18 18 19 19 19 19 19
30 31 31 31 30 30 29 28 27 26 26 25 24 23 22 21 20 19 19 18 18 18 18 18 18 18 18 18 18 18 18 18 18 18 19 19 19 20 20 20 20 20 20
30 31 32 32 32 32 31 29 28 27 27 26 26 25 24 23 22 21 20 20 20 20 20 19 19 19 19 19 19 20 20 20 20 20 20 21 21 21 21 22 22 22 22
31 31 32 33 34 33 32 30 29 29 28 28 27 27 26 25 24 23 22 22 21 21 21 21 21 21 21 21 21 22 22 22 22 22 22 22 23 23 23 23 23 23 23
31 31 32 34 35 34 33 32 31 31 29 29 29 29 28 26 26 25 25 24 24 23 23 23 23 23 23 24 24 24 24 24 24 24 24 24 24 24 24 24 24 24 24
32 32 33 34 35 34 34 34 33 32 30 30 30 29 29 28 27 27 27 27 26 25 25 25 26 26 26 26 26 27 26 26 26 26 26 26 26 26 26 26 26 26 26
32 33 34 34 35 35 35 35 34 33 32 30 30 30 31 30 30 29 29 29 28 28 27 27 28 28 28 28 28 29 29 28 28 28 28 28 28 28 28 28 28 28 28
31 34 36 36 35 35 36 36 35 36 35 33 32 32 32 32 31 31 30 30 30 30 30 30 30 30 31 31 30 30 30 30 30 30 30 30 30 30 30 30 30 30 30
31 33 36 37 37 37 36 36 37 37 36 35 34 33 33 33 32 33 32 32 32 32 33 33 33 33 33 32 32 32 32 32 31 31 32 33 33 33 33 33 33 33 33
32 33 35 36 36 37 37 36 36 36 35 34 33 32 33 33 33 34 34 34 33 34 34 35 35 34 33 33 33 33 34 34 33 34 34 34 34 34 34 35 35 35 35
32 34 34 34 36 37 37 36 37 36 37 35 35 34 34 34 34 35 35 35 35 35 35 35 36 36 35 35 34 35 35 35 35 36 36 36 36 36 36 36 36 36 37
30 32 33 33 35 35 36 35 36 37 36 35 34 34 35 35 35 35 35 36 36 36 36 37 37 37 37 37 36 37 37 37 37 37 36 36 36 36 36 36 37 38 38
30 31 31 32 33 35 36 36 36 35 35 35 35 34 34 35 36 36 36 36 38 38 38 38 38 38 39 39 39 38 38 37 37 37 38 38 37 37 38 38 39 39 40
28 30 30 30 32 34 34 35 34 36 36 36 35 35 35 36 37 37 37 37 38 39 39 39 39 39 39 40 40 39 39 38 38 38 38 39 39 39 39 39 39 40 40
26 27 29 29 31 32 35 35 34 36 36 36 35 34 35 36 37 38 38 39 39 39 39 40 40 40 40 39 39 39 39 39 39 39 39 40 40 41 41 41 41 41 41
26 27 29 30 30 32 35 36 35 36 36 35 35 35 35 35 37 39 40 40 40 40 40 40 40 40 39 39 39 39 39 39 39 39 40 41 42 42 42 42 42 42 43
26 27 29 29 30 32 34 35 36 36 36 36 35 35 35 36 37 39 40 40 40 40 39 39 39 40 39 38 38 39 39 39 39 40 41 42 42 43 43 43 43 43 44
26 27 28 29 29 31 33 34 36 37 36 35 36 36 36 37 37 38 40 41 41 40 40 40 40 41 40 39 40 40 40 40 39 40 41 42 42 43 45 45 45 45 44
25 27 28 29 30 31 33 35 36 36 36 36 36 37 37 37 37 38 40 40 40 40 41 41 41 41 42 42 42 43 43 43 42 43 43 43 43 44 45 45 45 46 46

GEFSSE_500_meanwind_216.txt.gz
Wind_Speed
17 17 16 16 16 16 15 16 16 16 15 14 13 12 11 11 10 9 9 8 8 7 7 7 6 6 6 6 6 6 6 6 6 6 7 7 7 8 8 8 8 8 8
19 18 18 18 17 17 17 17 18 17 16 16 15 14 13 12 12 11 10 10 9 9 8 8 8 7 7 8 7 7 7 7 7 7 8 8 8 8 9 9 9 9 9
20 19 19 19 19 19 19 18 19 19 18 18 17 16 15 15 14 13 12 11 10 10 10 10 9 9 9 9 9 9 9 9 9 9 9 9 9 10 10 10 10 10 10
21 21 21 21 21 20 20 20 20 20 20 19 19 18 17 16 16 15 14 13 12 12 11 11 10 10 10 10 10 10 10 10 10 10 10 10 11 11 11 11 11 12 12
22 22 22 22 22 22 22 22 21 21 21 21 21 20 19 18 17 17 16 15 14 13 13 12 11 11 11 11 11 11 11 10 11 11 11 11 11 12 12 12 13 13 13
24 23 24 23 23 23 23 23 23 23 23 23 22 22 21 20 19 18 17 16 15 15 14 13 13 13 13 13 12 12 12 12 12 12 13 13 13 13 13 14 14 14 15
25 25 25 25 25 25 25 25 25 25 25 25 24 24 23 22 21 20 18 18 17 16 15 15 15 15 14 14 14 13 13 13 13 14 14 14 15 15 15 16 16 16 16
26 26 27 27 27 27 26 26 27 27 27 27 26 26 25 24 23 21 20 19 18 17 17 16 16 16 16 15 15 15 14 14 15 15 16 16 16 17 17 17 17 17 17
28 28 28 28 29 29 28 28 27 28 28 28 27 27 27 25 24 23 22 21 20 19 19 18 17 17 17 17 16 16 16 16 16 17 17 17 18 18 18 18 18 18 18
29 29 29 30 30 30 30 30 29 29 29 29 29 28 28 27 26 25 24 23 22 21 20 19 19 19 18 18 18 18 18 18 18 19 19 19 19 20 20 20 20 20 20
29 30 30 31 31 32 32 32 31 31 30 30 30 30 30 29 28 27 26 25 24 23 22 21 21 21 20 20 19 20 20 20 20 21 21 21 21 22 21 21 21 21 21
30 31 31 33 33 33 34 34 34 33 32 32 32 32 31 30 30 29 28 27 26 25 24 24 24 23 22 22 22 22 22 22 23 23 23 23 23 24 23 23 23 23 23
31 32 33 34 34 35 36 36 36 35 34 34 34 33 33 32 31 31 29 29 28 27 26 26 25 25 25 24 24 24 24 25 25 25 25 25 25 25 25 25 25 25 26
32 33 34 34 35 35 37 38 38 38 37 35 35 34 33 32 32 32 30 29 28 28 28 27 27 27 27 26 26 26 26 27 26 27 27 27 27 27 27 28 28 28 28
32 33 34 34 35 36 36 38 39 38 38 37 37 37 34 33 34 33 32 31 30 29 28 28 29 29 28 28 29 29 29 28 28 29 29 29 29 30 30 30 30 30 30
31 32 33 34 35 36 37 38 39 39 38 37 38 38 37 35 35 35 34 33 32 31 30 30 30 30 31 31 31 31 31 31 31 31 30 31 32 31 31 32 32 32 32
31 32 33 35 35 36 37 37 38 39 39 38 39 39 39 37 36 35 36 35 34 33 32 31 31 31 32 33 33 33 33 33 34 33 33 33 33 33 32 33 33 33 32
30 31 33 34 35 36 37 38 38 40 40 38 39 39 39 37 36 35 36 36 35 33 33 32 33 33 34 34 34 34 35 35 35 36 35 34 34 34 34 34 34 34 34
30 31 32 34 35 36 37 37 38 38 39 39 39 38 39 38 36 36 36 35 35 35 34 34 34 35 35 35 35 36 36 37 37 37 37 36 36 35 35 35 35 35 35
29 30 30 32 34 35 36 36 37 38 39 39 38 38 39 41 38 36 36 36 36 36 36 36 36 36 36 37 37 38 38 38 39 39 38 37 37 37 37 37 37 37 37
28 28 28 29 32 33 34 35 35 35 37 38 38 37 38 40 40 38 38 37 36 36 37 37 37 38 38 39 39 39 39 40 39 40 39 39 39 39 39 39 39 39 39
25 26 26 27 29 31 33 34 34 35 35 36 37 37 37 38 39 38 38 37 37 37 38 39 39 39 39 39 40 40 40 41 41 41 41 40 41 40 41 41 41 41 41
24 24 25 27 28 30 31 33 33 34 35 35 37 37 38 37 38 39 39 38 38 38 39 40 40 40 40 40 41 42 42 42 43 42 41 41 41 41 42 42 43 43 43
22 23 23 26 27 28 30 33 34 34 34 35 37 38 38 38 38 40 40 39 38 39 39 40 40 40 41 42 43 43 43 43 43 43 42 43 43 43 43 44 43 44 45
23 23 24 26 27 29 30 33 33 33 34 35 37 38 38 37 37 39 40 39 39 39 39 40 41 42 42 42 42 42 42 43 43 44 43 43 44 44 44 45 45 46 46
23 24 24 25 27 28 29 31 32 33 34 34 35 37 37 36 38 38 40 40 40 40 40 40 41 42 42 42 42 42 42 43 44 44 45 44 45 45 45 45 46 46 46

GEFSSE_500_meanwind_222.txt.gz
Wind_Speed
17 18 18 18 18 17 17 17 17 16 16 15 15 15 14 13 12 12 11 11 10 10 9 9 8 7 7 6 6 6 6 5 5 5 5 5 5 6 6 6 6 6 7
19 19 18 18 18 18 18 18 18 17 17 17 16 16 16 15 14 13 13 12 11 11 11 10 9 9 8 8 7 7 7 7 7 7 7 7 7 7 7 7 7 8 8
20 20 20 19 19 19 19 19 19 19 19 18 18 18 17 16 16 15 14 14 13 12 12 12 11 10 10 10 9 9 9 9 9 8 8 8 8 8 8 8 9 9 9
22 22 22 21 21 20 20 20 20 20 20 20 20 19 19 18 18 17 16 15 14 14 13 13 13 13 12 11 11 11 10 10 10 10 9 9 9 9 10 10 10 10 11
24 23 23 23 23 22 22 22 22 22 21 21 21 21 20 20 19 19 18 17 16 16 15 14 14 14 14 13 13 12 12 12 11 11 11 11 11 10 11 11 11 11 12
25 25 24 24 24 24 24 24 24 23 23 22 22 22 21 21 20 20 19 19 18 17 17 16 15 15 15 14 14 13 13 13 12 12 11 11 11 11 11 12 12 12 13
27 26 26 26 26 25 25 25 25 24 24 24 23 23 22 22 22 21 21 20 20 19 18 17 17 17 16 16 15 15 14 14 13 13 13 13 13 13 13 13 13 14 14
28 27 27 27 27 27 26 26 26 26 26 25 25 24 24 24 23 22 22 22 21 20 19 19 18 18 17 17 17 16 16 15 14 14 14 14 14 14 14 14 14 14 15
29 29 29 29 29 29 28 28 27 27 27 27 26 26 26 25 24 23 23 23 23 22 21 20 20 19 19 19 18 18 17 17 16 16 16 16 16 16 15 15 15 16 16
30 30 30 30 30 30 30 29 29 29 29 28 28 28 27 26 26 26 25 25 24 24 23 23 22 21 21 21 20 19 19 18 18 18 17 17 18 18 17 17 17 17 17
29 29 31 30 31 31 31 31 31 31 31 31 30 30 29 28 28 28 28 27 26 26 25 25 24 24 23 23 22 21 21 20 20 20 20 19 19 19 19 19 19 19 19
29 30 31 31 31 32 32 32 32 32 32 33 32 32 31 30 30 30 30 29 28 27 27 27 26 26 25 25 24 23 23 22 22 22 21 21 21 20 20 21 22 21 21
30 30 31 31 32 33 33 33 34 34 34 35 35 35 34 34 33 32 32 31 30 29 28 28 27 27 27 26 26 25 24 24 24 23 23 23 23 23 22 23 23 23 23
31 31 32 33 33 33 34 35 35 36 36 37 37 37 36 36 36 35 33 33 32 31 30 30 29 29 29 28 27 26 26 25 25 25 25 25 25 24 24 24 24 24 25
31 32 33 33 34 34 35 36 36 37 37 38 38 37 37 37 37 37 35 35 34 32 31 31 30 30 29 29 28 28 27 27 26 26 26 26 26 26 26 26 26 26 27
32 33 34 34 35 35 35 36 36 36 36 37 38 38 38 38 38 38 37 36 35 34 33 32 32 31 31 30 29 29 28 28 28 28 28 28 28 29 29 29 29 28 28
32 33 35 35 34 35 35 35 35 35 36 37 38 39 39 38 39 39 38 37 37 36 34 33 33 33 33 32 31 31 30 30 30 30 30 30 30 31 31 30 30 31 30
33 33 35 36 35 34 34 35 35 35 36 37 38 39 39 39 39 39 40 39 38 37 35 35 34 34 34 33 32 32 32 31 31 31 32 32 32 32 32 31 32 32 32
32 32 33 35 35 34 34 34 36 36 37 37 37 38 40 40 39 40 41 40 39 38 37 36 36 36 35 35 34 34 33 33 33 33 33 33 33 33 33 33 33 33 33
32 32 32 34 34 34 34 34 35 36 37 37 37 37 39 40 39 40 40 40 40 39 37 37 38 37 37 36 36 35 35 34 33 34 34 34 34 34 34 34 35 36 36
32 31 32 33 35 35 35 34 34 34 35 36 36 37 38 40 39 40 40 41 41 41 39 38 38 38 38 37 37 37 36 36 35 35 35 36 36 36 36 37 37 38 38
31 31 32 32 34 34 33 33 33 33 33 34 35 37 37 39 39 40 41 41 41 42 41 39 38 39 38 38 38 38 37 37 37 37 37 37 38 38 39 39 39 40 41
30 30 31 31 33 33 33 33 33 33 34 34 35 36 37 39 38 39 40 41 41 41 41 40 39 40 39 39 40 40 39 38 38 38 39 39 40 40 41 41 42 42 43
29 29 29 30 31 31 33 34 33 32 33 34 36 37 37 37 37 38 39 40 40 40 40 40 41 41 40 41 41 41 41 41 40 39 40 41 42 43 44 44 44 45 45
29 29 29 30 31 31 31 32 32 32 32 33 35 36 37 36 37 38 39 40 40 40 39 40 40 41 41 42 42 41 41 41 42 42 42 42 43 44 45 46 46 47 47
28 29 29 29 30 31 31 31 31 32 33 33 33 35 35 35 37 37 39 39 40 41 40 40 40 40 41 43 43 43 44 44 43 44 44 44 45 45 46 47 48 48 49

GEFSSE_500_meanwind_228.txt.gz
Wind_Speed
15 15 15 15 15 15 15 15 15 15 15 15 15 15 14 14 14 13 13 12 12 12 11 11 10 9 8 8 7 7 7 7 6 6 6 6 6 5 6 6 6 6 6
17 17 17 17 16 16 16 16 16 16 16 16 17 16 16 16 15 14 14 14 13 13 13 12 11 11 10 9 9 8 8 8 7 7 7 7 7 7 7 7 7 7 8
18 18 19 19 18 18 17 17 17 18 18 18 18 18 18 17 17 16 16 15 15 14 14 14 13 13 12 11 10 10 10 9 9 9 9 9 9 9 9 9 9 9 9
20 20 20 20 20 20 19 19 19 19 19 19 19 19 19 19 19 18 17 17 16 16 16 15 15 15 14 13 12 12 12 11 11 11 11 11 11 11 10 10 10 10 10
23 22 22 22 21 21 21 21 21 21 21 21 21 21 20 20 20 19 19 19 18 17 17 17 16 16 15 15 14 14 14 13 13 13 12 12 12 12 12 12 11 11 11
24 24 24 24 24 23 22 22 23 23 22 22 22 22 22 22 21 21 20 20 19 19 18 18 17 17 16 16 16 15 15 15 14 14 14 13 12 12 12 12 12 12 12
26 26 26 26 26 25 24 24 24 24 24 24 24 23 23 23 23 22 21 21 20 20 19 19 19 18 18 17 17 16 16 16 15 15 15 14 13 13 13 13 13 13 13
27 27 28 27 27 26 26 25 25 25 25 25 25 25 24 24 23 23 22 22 21 20 21 20 20 20 19 19 18 18 17 17 17 17 16 16 15 15 15 15 15 15 15
27 27 27 28 27 27 27 26 26 26 26 26 27 26 26 25 25 24 24 23 23 22 22 21 20 21 21 20 20 19 19 19 19 18 18 17 17 17 17 17 17 17 16
27 27 27 27 28 28 28 27 27 27 28 28 28 28 28 27 27 26 26 25 24 24 24 23 23 22 22 22 22 21 20 20 20 20 20 19 19 19 19 18 18 18 18
26 28 28 27 27 28 28 28 29 29 29 29 29 29 29 29 29 28 28 27 27 26 26 26 25 24 23 23 23 23 22 22 21 21 21 21 21 21 20 20 20 20 20
26 27 28 29 28 29 29 30 30 30 30 30 31 31 31 31 30 30 30 29 29 28 28 28 27 26 25 25 25 24 24 23 23 23 23 22 22 22 22 22 22 22 22
27 27 28 29 29 30 30 31 31 31 32 32 32 32 32 32 32 32 32 32 31 31 30 30 29 28 28 27 27 26 25 25 25 24 24 23 23 23 23 23 23 23 23
26 27 29 29 30 30 31 32 33 33 34 34 34 34 34 34 34 34 34 34 34 34 33 32 31 30 30 29 28 28 28 27 26 26 26 25 25 25 24 24 24 24 24
28 28 29 30 30 31 31 32 33 34 35 35 35 36 36 37 36 36 36 36 36 36 35 34 33 33 32 31 30 29 30 29 28 28 27 27 27 27 26 26 25 25 26
29 29 30 30 31 31 32 33 34 35 36 37 37 37 37 38 38 38 38 38 38 38 37 37 36 35 34 33 33 32 31 31 31 30 29 29 29 29 28 27 27 27 27
30 30 32 32 32 32 33 34 34 36 37 37 38 39 39 39 40 40 40 40 40 40 39 39 39 38 37 36 34 33 33 33 32 32 31 30 30 30 30 29 29 28 28
31 32 33 33 33 33 34 35 35 36 37 38 38 39 40 40 40 41 41 41 41 41 41 41 41 40 38 38 36 35 35 34 34 33 33 33 32 32 31 31 30 30 30
32 33 34 34 34 34 34 35 36 36 37 37 38 38 39 40 40 40 41 41 41 41 41 42 42 42 40 39 38 37 37 36 36 35 35 35 34 33 33 32 32 32 32
33 33 34 35 35 35 35 36 37 36 37 37 37 38 39 39 40 40 40 40 40 41 41 42 42 42 42 41 39 39 38 38 37 37 37 36 36 35 34 35 35 35 34
32 32 33 33 34 35 35 36 37 37 37 37 37 37 38 38 39 39 39 39 40 40 41 41 42 42 42 41 40 40 40 39 38 38 39 38 37 37 37 37 37 37 37
32 32 32 33 34 34 35 35 35 35 35 35 36 37 38 39 39 38 39 39 40 41 41 41 42 42 43 42 42 41 40 39 39 40 40 40 39 38 38 38 38 38 39
32 32 33 33 33 34 35 34 34 35 34 35 36 35 37 38 38 38 39 39 40 41 41 41 42 43 43 43 43 43 42 42 41 40 41 42 41 41 41 40 40 40 41
32 33 32 31 32 33 34 34 33 33 34 35 35 36 36 36 37 38 39 40 40 40 41 41 41 42 43 43 43 43 44 43 43 42 42 43 43 43 43 44 43 43 44
31 32 32 31 32 32 33 33 34 32 33 33 34 36 36 36 37 38 39 39 40 41 41 41 41 41 43 43 43 43 44 43 44 45 44 45 45 45 46 46 46 46 46
31 31 32 31 31 31 32 32 33 32 32 32 34 35 36 36 36 37 38 40 41 41 41 41 41 42 42 42 42 43 44 44 45 46 47 47 47 47 48 48 49 49 48

GEFSSE_500_meanwind_234.txt.gz
Wind_Speed
15 15 15 15 15 14 14 13 13 13 12 12 11 11 11 10 10 10 9 9 9 8 8 8 8 8 7 7 7 6 6 6 6 7 6 6 6 7 7 7 6 6 7
16 16 17 17 16 16 15 14 14 14 13 13 13 12 12 12 12 11 11 10 10 10 10 10 9 9 8 8 8 7 7 7 7 8 8 8 8 8 8 8 8 7 8
18 18 18 18 18 17 16 16 15 15 15 14 14 13 13 13 13 13 12 12 12 11 11 11 11 10 10 9 9 9 8 8 9 9 9 9 9 9 9 9 9 9 9
20 20 19 19 19 19 18 17 17 16 16 16 15 15 15 15 14 14 14 14 14 13 13 13 12 12 12 11 11 10 10 10 11 11 11 11 10 10 10 10 10 11 11
22 22 21 21 21 21 20 20 19 18 18 17 17 17 16 16 16 15 15 15 15 15 15 14 14 14 14 14 13 12 12 12 12 12 12 12 12 11 11 11 11 11 11
24 23 23 23 22 22 22 22 21 20 20 19 19 19 18 18 17 17 17 17 17 17 16 16 15 15 15 15 15 15 14 14 14 14 13 13 13 13 13 13 13 13 13
25 25 25 24 24 24 24 23 23 22 22 21 21 20 20 19 19 18 18 18 18 17 17 17 16 16 16 17 16 16 16 15 15 14 14 14 14 14 15 14 14 14 14
26 26 26 26 25 25 25 25 25 24 23 23 22 22 22 21 20 20 20 19 19 19 19 18 18 17 17 17 17 17 16 16 16 15 15 15 15 15 15 15 15 15 15
27 27 27 27 26 26 26 26 26 26 26 25 24 23 23 22 22 22 21 21 21 21 20 20 19 19 18 18 18 18 18 17 17 17 16 16 16 17 17 17 17 17 17
28 28 27 27 27 27 28 28 28 27 27 27 26 25 24 24 24 24 23 23 22 22 22 21 21 20 20 20 20 20 20 19 19 19 19 18 18 18 19 19 19 18 18
29 29 28 28 27 27 28 28 28 28 28 28 28 27 26 26 25 25 25 25 24 24 24 23 23 23 22 22 22 22 21 21 21 21 21 20 20 20 20 20 20 20 19
30 31 30 30 29 29 29 29 28 29 29 29 29 28 28 28 27 27 27 26 26 26 26 25 25 25 25 24 24 24 24 23 23 23 22 22 22 22 22 21 21 21 21
31 32 32 31 31 30 30 30 30 30 29 29 30 29 29 28 29 28 28 28 28 28 28 28 28 27 27 27 26 26 25 25 24 24 24 24 23 23 23 23 22 22 22
31 32 32 33 31 31 31 31 30 31 31 30 30 30 30 30 30 30 30 30 29 29 30 30 30 30 29 29 29 28 28 27 27 26 26 26 25 25 25 25 24 24 24
32 32 32 33 32 31 32 32 31 31 31 31 31 31 31 31 31 31 31 31 31 31 31 32 32 32 32 31 31 30 30 29 29 28 27 27 27 27 26 26 26 26 26
32 32 32 32 33 33 33 33 32 32 32 32 32 32 32 33 32 33 33 33 34 34 34 34 34 34 34 33 33 32 32 31 31 30 30 29 29 28 28 28 27 27 27
33 32 32 32 34 34 33 33 33 33 33 33 33 33 33 34 34 34 35 36 36 36 36 36 36 35 35 35 35 34 34 33 33 33 32 32 31 31 30 30 29 29 29
35 34 33 33 34 35 34 34 33 33 34 34 34 34 34 35 35 35 36 37 38 38 38 38 38 38 37 37 37 36 36 36 35 35 35 34 33 33 32 32 32 31 31
36 35 34 34 35 35 35 34 34 34 35 35 35 35 35 36 36 36 37 38 39 39 39 40 39 39 39 39 39 38 38 38 37 36 36 36 35 34 34 33 33 33 33
36 36 35 34 34 35 35 35 34 35 36 36 35 36 36 36 37 38 38 39 40 40 40 40 40 40 40 40 40 39 39 38 38 37 37 36 36 35 35 35 35 35 35
34 35 34 34 34 34 35 35 35 35 36 36 35 35 36 36 37 38 39 40 40 41 41 41 41 40 40 40 41 41 40 39 39 38 38 38 37 37 36 36 37 37 37
34 34 35 34 34 34 35 36 36 36 36 36 37 36 36 37 38 39 39 40 41 42 42 42 42 41 41 41 41 41 41 40 40 40 39 39 39 39 39 39 39 39 39
34 34 35 35 35 35 35 35 36 37 37 37 38 38 37 38 38 39 39 39 40 41 42 42 42 42 42 42 42 43 43 43 41 40 41 41 41 41 41 41 41 41 41
35 35 36 35 36 36 36 35 35 36 37 38 38 38 38 38 38 39 39 40 40 40 41 41 41 42 43 43 44 44 44 44 43 42 41 42 42 43 42 43 43 43 43
35 36 36 36 36 36 36 36 36 36 36 37 37 38 38 38 39 39 39 40 41 41 41 41 42 43 44 45 45 45 44 45 44 44 44 43 43 44 44 44 44 45 46
36 36 36 37 37 37 37 36 36 36 36 37 37 37 37 38 39 39 40 40 41 41 42 43 43 44 44 45 46 46 46 45 45 45 45 45 45 45 45 46 46 47 47

GEFSSE_500_meanwind_240.txt.gz
Wind_Speed
16 16 15 15 14 14 14 14 13 14 14 14 14 13 13 12 12 11 11 10 9 9 8 8 8 8 7 7 6 6 5 4 4 4 4 4 4 4 4 4 5 5 6
17 17 16 16 16 15 15 15 15 15 14 14 14 14 14 14 13 13 12 12 11 10 9 9 9 9 8 8 7 7 6 6 5 5 5 5 5 5 5 5 6 6 7
19 19 18 18 17 17 16 16 16 16 16 15 15 15 15 15 14 14 13 12 12 11 11 11 10 10 10 9 8 8 8 7 7 6 6 6 6 6 6 6 7 7 7
21 21 20 20 19 19 18 18 18 18 18 17 17 16 16 16 16 15 14 14 13 12 12 12 12 11 11 10 10 10 9 9 8 8 8 8 7 7 7 7 7 7 8
22 22 22 22 21 20 20 20 20 20 19 19 19 18 18 17 17 16 16 15 14 14 13 13 13 13 12 12 12 11 11 11 10 10 9 9 9 9 8 8 8 8 9
22 22 22 23 23 22 21 21 21 21 21 21 20 20 19 19 18 18 18 17 16 15 15 15 15 14 14 14 14 13 13 12 12 11 11 10 10 10 9 9 9 10 10
23 23 23 23 24 24 23 23 23 23 23 22 22 22 21 20 20 20 19 18 18 17 16 16 16 16 15 15 15 15 15 14 13 12 12 11 11 11 11 11 11 11 11
24 24 24 24 24 25 25 25 24 24 24 24 24 23 23 22 21 21 20 20 19 18 18 18 18 17 17 17 16 16 16 16 15 14 14 13 13 13 12 12 12 12 12
25 25 25 25 25 26 26 26 26 26 25 25 25 24 24 23 23 23 22 21 21 20 20 19 19 19 18 18 18 18 17 17 17 16 16 15 14 14 14 14 14 14 14
27 27 26 26 26 26 27 28 28 27 26 26 26 26 26 25 25 24 23 23 22 22 21 21 21 20 20 20 19 19 19 19 19 18 17 17 17 16 16 15 15 16 16
28 28 28 27 27 27 28 29 29 29 28 28 28 27 27 27 26 26 25 25 24 24 23 23 22 22 21 21 21 21 20 20 20 20 19 19 18 18 18 17 17 17 17
30 29 29 29 29 28 29 29 30 30 30 30 29 29 28 29 28 28 27 26 26 26 25 24 24 23 23 23 22 22 22 22 22 22 22 21 21 20 20 19 19 19 19
31 31 31 30 30 30 30 30 31 31 31 31 30 30 29 29 29 29 28 28 27 27 27 26 26 25 25 25 24 24 24 24 24 24 23 23 23 22 22 22 21 21 21
33 33 33 32 32 32 32 31 32 32 32 32 31 30 30 30 30 30 30 29 29 29 28 28 28 28 27 27 27 26 26 26 26 26 26 25 25 24 24 24 24 23 23
35 34 33 34 33 33 33 33 32 32 33 33 33 32 32 32 31 31 31 31 31 30 30 30 30 30 30 29 29 29 28 28 28 28 28 27 27 26 26 26 26 26 26
36 35 35 35 34 34 34 34 34 33 34 34 34 34 33 33 32 32 32 32 32 32 32 32 32 32 32 32 32 31 31 31 30 30 30 30 29 28 28 28 28 28 27
37 37 37 36 35 35 35 35 35 35 35 35 35 35 34 34 34 33 33 33 33 33 34 34 33 34 34 33 34 33 33 33 33 33 32 32 31 31 30 30 30 30 29
37 38 38 37 36 36 36 37 37 36 36 35 35 36 36 35 35 35 35 35 34 35 35 35 35 35 35 35 35 35 36 36 35 35 35 34 33 33 33 32 32 32 31
39 38 39 38 37 37 37 38 38 37 37 37 36 36 36 36 36 36 36 36 36 36 36 36 36 36 37 37 37 37 37 37 37 36 36 36 35 35 35 34 34 33 33
39 38 37 37 37 37 37 38 39 38 38 38 37 37 37 37 37 37 37 37 37 37 37 37 37 38 39 39 39 38 38 38 38 38 37 37 37 36 36 36 36 35 35
39 38 38 37 37 37 37 38 38 38 38 39 38 37 38 38 38 38 38 38 38 37 37 37 38 39 40 40 40 40 40 40 39 39 39 39 38 38 37 37 37 37 37
39 39 38 38 38 37 37 38 38 38 38 38 37 37 38 38 39 39 39 38 38 38 38 38 39 40 40 40 41 41 41 41 41 41 40 40 40 40 39 39 38 39 39
40 39 39 38 38 38 38 38 38 38 38 38 37 37 37 38 38 39 38 39 39 39 39 39 40 40 40 41 42 42 42 42 42 42 41 41 42 41 41 41 41 41 41
40 40 40 39 38 38 37 38 38 38 38 37 37 37 37 37 38 38 38 39 39 39 40 40 41 41 41 41 42 43 43 43 43 43 43 43 43 43 43 43 43 43 43
40 40 40 39 38 37 37 38 38 38 38 38 38 38 37 37 37 38 38 38 38 38 39 40 40 41 42 43 43 44 44 45 44 44 44 44 44 45 45 45 45 45 45
40 40 40 39 38 38 38 38 38 38 38 38 37 38 37 37 37 38 38 38 38 38 38 39 40 41 42 43 44 45 46 46 45 46 46 46 46 46 46 46 47 47 47

GEFSSE_500_meanwind_246.txt.gz
Wind_Speed
16 16 16 16 16 15 15 15 15 15 14 14 14 13 13 13 12 12 11 11 10 9 8 9 9 8 8 7 6 6 5 5 4 4 3 3 3 3 3 3 3 3 3
17 17 18 18 17 17 16 16 16 16 15 15 15 14 14 14 14 13 13 12 11 10 10 9 10 9 9 8 7 6 6 6 5 5 4 4 4 4 4 4 4 4 4
19 19 19 19 19 18 18 17 17 17 16 16 16 15 15 15 15 14 14 13 13 12 11 11 10 10 10 9 8 8 7 7 6 6 6 5 5 5 5 4 4 4 4
20 20 20 20 20 19 19 18 18 18 18 17 17 16 16 16 15 15 15 14 14 14 13 12 11 11 11 10 9 9 8 8 7 7 7 6 6 6 5 5 5 5 5
21 21 21 21 21 21 20 19 19 19 19 19 18 18 17 17 16 16 16 16 15 15 15 14 13 12 12 12 11 10 9 9 9 9 8 8 8 7 7 7 7 7 7
22 22 22 22 22 21 21 21 21 20 20 20 19 19 19 19 18 18 18 18 17 16 16 15 15 14 13 13 12 12 11 11 10 10 10 9 9 9 8 8 8 9 8
23 23 22 22 22 22 22 22 22 22 22 21 21 20 20 20 20 19 19 19 19 18 18 17 16 16 15 14 14 14 13 13 12 12 11 11 10 10 10 10 10 10 10
25 24 23 23 22 23 23 22 22 22 23 23 23 22 21 21 20 20 20 20 20 20 19 19 18 17 17 17 16 16 15 14 14 13 13 12 12 12 12 11 12 11 11
27 26 25 24 23 23 23 23 23 23 23 24 24 24 23 22 21 21 21 21 21 20 20 20 20 19 18 18 18 17 17 16 15 15 14 14 14 13 13 13 13 13 13
28 27 26 26 25 24 24 24 24 24 24 25 25 25 25 24 23 22 22 22 22 22 22 22 21 21 20 19 19 18 18 17 17 16 16 16 16 15 15 14 14 14 14
30 29 28 27 27 26 26 25 25 25 25 25 26 26 26 25 25 24 24 23 23 24 23 23 23 23 22 21 21 20 19 19 18 18 17 17 17 16 16 16 16 16 16
31 31 30 30 29 28 28 27 27 26 26 26 27 27 27 27 27 26 25 25 25 25 25 25 24 24 24 24 23 22 21 21 20 20 19 18 18 18 18 18 18 18 18
33 33 33 32 31 30 30 29 28 28 28 28 28 29 29 29 29 28 27 27 27 26 26 26 26 26 26 26 25 24 23 23 23 22 21 21 20 20 20 20 20 20 20
35 34 34 34 33 32 32 31 30 30 29 29 29 29 30 30 30 30 30 29 29 28 28 27 27 27 27 27 27 26 26 25 25 24 24 23 23 22 22 22 22 22 22
36 36 35 35 35 34 34 33 32 32 31 31 30 30 30 31 31 31 31 30 30 30 30 29 29 29 29 29 28 28 28 28 27 27 27 27 26 25 25 24 24 25 25
38 37 36 36 36 35 34 34 34 34 33 32 32 31 31 31 32 32 32 31 31 31 31 31 30 30 30 30 30 29 29 30 30 29 29 29 29 28 27 27 27 27 27
40 39 38 38 37 37 35 35 35 35 35 34 33 33 33 33 33 33 33 33 33 33 32 32 32 32 32 32 32 32 31 31 31 31 31 30 30 29 29 29 29 29 28
41 41 40 39 38 38 37 36 36 36 36 36 35 35 35 35 34 35 35 35 34 34 34 33 33 33 33 33 33 33 33 33 33 33 32 32 31 31 31 31 30 30 30
42 42 41 40 40 39 39 38 37 38 38 37 36 36 36 36 36 35 34 35 35 35 35 35 35 35 35 35 35 35 35 35 35 34 34 34 34 33 33 33 32 32 32
42 42 42 42 41 40 40 40 39 39 38 38 38 37 37 37 36 36 36 36 36 36 36 35 35 36 36 36 36 36 37 37 36 36 36 36 36 35 35 35 35 34 34
43 43 42 42 42 41 41 41 40 40 40 39 39 39 38 38 38 38 37 37 37 37 37 37 36 36 36 37 37 37 38 38 37 37 37 37 37 37 37 36 36 36 37
43 43 43 42 42 42 42 42 41 41 41 40 40 39 39 38 38 38 39 38 37 38 38 38 37 38 37 37 37 38 38 38 38 38 38 38 39 38 38 38 38 38 38
44 44 44 43 42 42 42 42 42 42 41 40 40 40 39 39 38 38 39 38 37 37 37 38 38 38 38 38 38 39 39 38 38 39 39 40 40 40 40 39 39 40 40
44 44 44 44 43 43 43 42 42 42 41 41 41 40 40 39 38 38 39 39 39 39 38 38 38 38 38 39 39 40 40 40 39 39 40 40 41 41 42 41 40 40 41
44 44 44 45 44 43 43 42 42 42 42 42 42 41 40 39 38 38 38 39 38 38 38 38 38 38 38 39 39 40 40 41 41 41 40 41 41 42 43 43 43 42 42
45 45 44 45 45 44 43 43 42 42 42 42 42 42 41 40 38 37 38 38 37 37 38 38 38 39 38 38 38 39 40 41 41 41 41 41 42 42 43 44 44 45 45

GEFSSE_500_meanwind_252.txt.gz
Wind_Speed
15 15 15 15 15 14 14 14 13 13 13 12 12 11 11 11 11 11 10 10 10 9 9 9 8 8 8 7 7 6 5 5 5 5 4 4 4 4 3 3 3 3 3
16 16 16 16 16 15 15 15 15 15 14 13 13 13 12 12 13 13 12 12 11 10 10 10 10 9 9 8 8 7 6 6 6 6 5 5 5 4 4 4 3 4 4
17 17 17 17 17 16 16 16 16 16 16 15 14 14 14 13 14 14 14 13 13 12 11 11 11 11 10 10 9 8 7 7 6 6 6 6 5 5 5 5 4 4 5
19 19 18 18 18 18 18 17 17 17 17 16 16 16 15 15 15 15 15 14 14 13 13 13 12 12 11 11 10 9 8 8 7 7 7 7 7 7 6 6 6 6 6
20 20 20 19 19 19 19 19 19 18 17 17 17 17 16 16 16 16 16 16 15 14 14 14 14 13 13 12 12 11 10 9 9 8 8 8 8 8 8 7 7 7 7
22 21 21 21 20 20 20 19 19 19 19 18 18 18 17 16 16 16 16 16 16 16 16 15 15 14 14 14 14 13 13 12 11 10 10 9 9 8 8 8 9 8 8
23 23 22 22 21 21 20 20 20 20 20 20 20 19 18 18 18 17 17 17 17 17 17 17 16 16 15 15 15 15 15 14 13 13 12 11 11 10 10 9 9 9 9
25 24 23 23 22 22 21 21 21 21 20 20 21 21 20 20 19 19 19 18 18 18 18 18 18 17 17 17 17 16 16 16 15 15 14 13 13 12 12 11 11 11 10
27 25 25 24 24 23 23 23 22 22 21 21 21 21 22 21 21 20 20 20 19 19 19 19 18 18 18 18 18 18 17 18 17 17 16 15 15 14 14 14 13 13 12
29 28 27 26 25 24 24 24 24 23 23 22 22 22 22 22 22 22 22 22 21 20 20 20 19 19 19 19 19 19 18 18 18 17 17 16 16 16 16 15 14 14 14
31 30 29 28 27 27 26 25 25 24 24 24 24 24 23 23 23 23 23 23 23 22 22 21 21 20 21 21 20 20 19 19 19 19 18 18 18 18 17 17 16 16 16
32 32 31 30 30 29 28 27 26 26 26 26 26 25 25 25 25 25 25 24 24 24 24 23 22 22 22 22 22 21 21 21 21 21 21 20 20 20 19 19 18 18 18
34 33 33 32 31 30 30 29 28 28 27 27 27 27 27 26 26 26 26 25 25 26 26 25 25 24 24 24 24 23 23 23 23 23 23 22 22 22 21 21 21 21 20
36 35 34 34 33 32 31 31 31 30 29 28 28 28 28 28 27 27 27 27 27 27 27 27 27 26 26 26 26 26 25 26 25 25 25 24 24 24 24 24 23 23 23
37 36 36 36 35 35 34 33 33 32 31 30 30 29 30 29 29 29 29 29 29 29 29 29 29 28 28 28 28 27 27 28 27 27 27 27 26 26 26 26 26 25 25
38 38 38 37 37 37 36 35 34 34 34 33 31 31 30 30 30 30 30 30 30 30 30 30 30 30 30 30 29 29 28 29 29 29 28 28 29 28 28 28 27 27 27
40 40 39 38 38 38 38 38 37 36 35 34 34 33 32 32 32 31 31 31 31 31 31 30 30 31 31 31 31 30 30 30 30 30 30 30 30 30 30 30 29 29 29
40 40 40 40 39 39 39 39 38 38 37 36 35 34 33 33 33 32 32 31 32 32 32 31 31 31 32 32 32 32 32 32 32 32 32 32 32 32 32 32 31 32 31
41 41 41 40 40 40 40 40 39 38 38 38 37 36 35 34 34 34 33 33 33 33 33 33 33 33 33 33 33 33 33 33 33 34 34 34 33 33 33 33 33 33 33
41 41 41 41 41 41 40 40 39 39 39 38 38 37 36 35 35 35 35 35 34 35 34 34 34 34 34 34 35 35 35 34 34 35 35 35 35 34 34 34 34 35 35
42 42 41 41 41 41 41 41 41 40 40 39 39 38 37 36 36 35 35 36 35 35 35 35 35 35 35 35 35 35 35 36 36 36 36 36 35 35 35 35 35 36 36
42 42 42 42 42 42 41 42 42 41 41 40 40 39 38 38 37 36 36 36 36 36 36 36 36 36 36 36 35 36 35 36 36 37 37 38 37 37 36 36 36 36 36
42 42 42 42 43 42 42 42 43 43 42 42 41 40 40 39 39 38 38 38 38 37 37 36 36 36 36 36 37 37 36 36 37 37 38 38 38 39 39 38 38 39 39
43 43 42 42 43 43 43 43 43 43 43 43 43 42 41 41 41 40 40 39 39 39 37 37 36 36 37 37 37 37 37 36 36 37 37 38 38 39 40 40 40 40 40
44 44 43 43 44 43 43 43 43 43 44 44 44 43 43 42 42 42 41 41 40 40 39 38 38 37 37 37 37 37 37 37 37 37 37 38 39 39 40 41 41 41 42
44 44 44 44 44 44 44 43 43 43 44 45 44 44 43 44 44 43 42 42 41 41 40 40 39 38 38 38 38 38 37 36 37 37 38 38 39 40 41 41 41 42 42